GFSSGP_sfc_thetae_024.txt.gz
Theta_e
323 320 320 316 300 303 300 302 309 315 318 324 324 321 321 325 322 314 340 341 338 337 341 343 346 346 347 348 348 347 346 344 342 342 343 342 341 340 340 339 337 336 331 331 333 332 331 331 331
323 322 318 306 298 296 299 308 313 316 321 324 324 323 321 320 332 333 336 341 339 338 339 341 346 346 347 348 347 346 345 343 342 341 340 340 339 337 337 338 337 337 332 333 332 331 330 329 329
319 317 304 301 299 297 299 309 316 319 321 321 319 324 321 322 332 335 341 343 340 337 339 343 345 345 347 346 347 345 344 343 341 340 338 336 334 334 335 338 337 336 333 333 333 333 332 332 333
314 310 306 300 298 303 305 314 318 317 319 321 320 314 322 327 334 339 343 344 339 341 342 341 341 343 345 345 345 344 343 342 340 339 338 335 334 335 335 337 337 335 334 333 333 333 333 334 334
313 306 298 298 300 305 309 318 317 313 315 318 318 312 316 326 340 341 342 343 339 337 338 340 339 341 343 346 345 344 342 341 340 338 337 336 333 334 335 337 336 335 333 333 333 333 333 334 334
304 305 297 296 300 306 309 318 315 314 315 318 316 314 319 329 335 339 341 340 340 337 338 340 340 341 342 344 342 341 341 340 339 337 336 335 335 335 336 335 335 335 335 334 333 334 334 334 333
304 301 298 300 301 305 312 320 314 311 313 316 319 314 322 327 335 339 334 335 337 337 337 338 338 340 340 339 339 338 339 339 339 337 336 336 335 335 335 335 335 335 335 335 335 335 335 334 334
306 304 299 301 300 305 316 317 315 315 311 321 321 315 317 331 335 336 332 330 331 335 334 336 338 341 339 337 337 337 337 337 337 335 334 333 333 334 334 335 334 334 334 333 333 333 333 333 332
309 299 297 300 302 306 310 310 316 319 315 318 320 324 332 336 332 331 327 325 328 329 334 336 337 339 339 337 336 336 337 336 335 333 332 330 329 330 331 332 332 333 333 332 330 330 330 331 331
304 299 300 308 313 308 310 311 313 313 313 316 320 331 334 335 329 330 328 323 324 325 330 335 337 338 338 335 333 332 331 330 330 328 328 330 334 328 330 331 331 331 330 330 330 330 330 330 321
305 300 305 310 311 312 311 311 314 312 309 314 310 324 329 330 330 329 329 328 325 330 334 337 337 338 332 332 333 329 328 333 335 335 335 335 334 332 330 331 326 329 328 328 326 327 325 322 320
302 305 307 310 314 312 309 314 310 312 311 317 319 327 328 328 328 329 329 330 331 332 335 336 337 337 333 331 329 330 331 334 334 335 336 335 333 331 331 330 329 327 326 325 324 323 324 320 319
303 306 307 312 312 311 314 312 311 308 314 317 318 327 326 327 328 327 327 330 330 331 334 335 336 334 333 333 334 335 335 337 337 338 337 336 334 331 330 329 326 328 325 323 321 319 318 317 317
306 307 306 310 311 310 310 310 310 312 316 315 321 322 324 323 323 323 324 325 327 331 331 333 333 333 333 334 335 332 331 331 333 334 333 331 330 326 325 326 325 324 322 320 319 318 316 314 314
308 302 304 306 310 308 311 306 306 315 319 318 318 318 319 321 321 321 322 324 326 329 330 331 331 331 335 332 328 327 326 327 331 331 332 330 328 327 325 324 323 321 320 318 316 315 313 311 311
303 303 297 304 308 309 308 298 306 315 315 314 316 317 318 318 320 321 323 324 326 329 329 330 330 335 333 329 326 325 325 327 327 327 328 327 327 324 322 321 320 318 318 315 313 312 310 310 309
302 294 297 300 307 308 305 300 306 312 313 313 315 316 318 319 319 321 322 322 325 330 330 331 333 333 329 328 328 326 327 326 325 324 323 323 322 322 320 318 317 315 315 313 313 311 310 308 307
294 295 297 298 302 306 303 302 306 309 313 313 315 316 318 318 319 323 323 323 326 332 333 332 333 330 330 328 326 327 327 327 325 323 321 321 318 318 317 317 314 313 313 312 311 309 309 307 303
300 299 297 300 304 302 301 301 303 308 310 312 314 316 317 318 322 324 327 328 327 332 333 333 329 329 329 327 325 325 323 322 322 318 319 317 316 315 313 314 314 313 310 310 308 305 304 303 303
300 298 297 300 303 302 300 300 304 307 309 312 313 315 317 318 321 324 326 329 331 332 333 331 330 329 329 328 327 325 322 321 318 317 316 315 315 313 313 312 311 310 307 306 305 303 301 301 301
299 299 298 298 300 301 301 297 301 305 309 311 314 315 317 318 320 323 325 328 331 330 331 330 329 329 330 328 325 321 318 316 314 314 313 313 314 313 312 311 309 307 305 303 303 302 301 297 298
297 304 302 300 298 293 302 291 297 303 305 308 311 313 315 317 321 323 325 326 328 328 328 330 329 329 326 326 322 318 315 312 314 313 313 313 313 311 309 307 307 306 306 304 303 302 300 298 294
299 304 303 302 298 298 297 293 298 303 302 306 311 314 317 318 320 322 324 326 326 329 329 329 327 323 322 320 320 317 314 314 313 311 308 307 306 305 304 303 303 302 302 303 303 302 300 298 295
306 303 303 301 299 290 295 294 295 299 302 301 310 313 316 318 321 323 326 326 325 326 324 323 318 317 319 318 317 314 310 308 305 303 302 302 301 301 302 302 301 301 301 301 302 301 300 299 297
302 299 292 289 289 290 299 296 297 303 305 306 308 312 315 319 321 321 321 320 319 319 318 317 315 315 315 314 311 309 306 305 302 300 301 300 299 299 299 299 299 300 301 301 301 299 298 297 296
300 298 294 283 283 291 299 293 297 307 309 310 314 315 318 319 319 318 318 317 316 316 316 315 314 313 311 310 307 305 304 302 302 303 300 299 298 298 299 299 299 299 301 300 300 298 297 297 296
300 296 302 295 298 293 293 296 302 306 306 308 313 315 316 317 316 315 315 315 314 315 315 315 313 311 309 306 305 304 303 302 302 302 301 300 299 298 298 298 298 298 298 299 297 298 298 298 296
302 303 296 296 287 285 290 293 295 302 303 306 310 312 315 316 314 313 313 314 315 315 315 316 314 309 306 306 305 303 302 304 303 302 300 298 298 298 298 298 297 297 297 297 297 297 296 295 294
300 298 298 297 298 291 288 291 302 301 304 306 309 313 314 315 313 313 313 314 315 315 314 314 311 306 305 305 304 302 303 303 302 301 300 298 298 298 297 297 296 296 296 296 295 294 294 294 293
303 301 300 296 292 297 294 292 305 304 305 308 309 311 314 315 314 313 314 314 314 313 313 311 308 305 306 304 302 302 303 302 301 300 299 299 297 298 296 296 296 296 296 295 294 293 293 292 291

GFSSGP_sfc_thetae_027.txt.gz
Theta_e
320 317 312 308 293 290 288 294 303 310 313 318 322 322 320 322 320 310 338 337 339 342 345 345 345 347 348 348 347 346 345 343 343 342 342 341 340 340 339 338 337 337 334 332 331 330 330 330 330
314 315 309 302 288 283 289 301 309 314 317 320 320 320 321 321 330 331 331 336 339 341 342 343 345 346 347 346 346 344 343 342 343 342 341 339 338 337 339 339 337 337 334 334 334 333 332 332 333
315 317 299 290 286 285 290 304 312 316 319 317 316 319 319 323 332 334 336 336 337 337 341 344 344 344 345 345 344 343 342 342 341 340 339 338 337 336 337 338 337 337 335 334 334 333 333 333 334
309 302 296 289 289 294 296 307 314 314 317 319 316 312 318 330 334 336 338 337 335 338 341 340 340 341 343 345 344 343 341 339 339 338 338 337 336 336 336 338 337 335 334 334 334 333 333 334 334
307 297 288 287 292 298 305 313 314 311 315 316 317 312 314 331 338 337 338 339 337 338 338 338 338 340 344 345 343 342 340 339 338 337 337 338 336 335 336 337 337 335 333 333 333 333 335 334 334
299 295 287 287 292 302 312 313 313 312 315 315 314 314 315 334 334 335 337 336 335 334 336 337 341 340 342 342 341 340 339 338 336 336 337 337 337 337 337 337 337 336 335 335 334 334 334 334 334
298 293 290 291 294 304 311 314 312 311 313 313 318 314 320 328 331 334 332 333 335 335 334 335 338 341 339 338 337 337 337 337 336 336 335 335 335 335 336 336 336 336 335 335 334 334 333 333 331
299 294 290 293 294 304 310 312 313 312 310 319 320 312 316 325 328 330 331 332 331 330 333 333 335 337 335 334 335 336 336 335 334 334 334 333 333 334 335 334 334 333 333 333 333 331 331 331 331
300 290 289 292 301 304 310 308 315 316 312 314 320 324 327 327 325 325 326 327 323 327 331 332 333 334 334 333 334 335 336 334 332 332 332 329 327 328 331 331 332 331 330 330 330 329 329 330 329
297 289 293 305 308 306 309 309 310 311 311 313 316 326 328 324 321 320 321 321 322 323 330 332 333 334 332 332 330 329 332 328 325 325 326 325 326 326 329 329 330 330 330 330 329 330 330 328 316
297 294 299 308 310 310 308 310 312 309 306 312 312 317 322 324 322 320 319 320 320 324 328 331 332 335 330 328 327 326 325 325 324 323 323 326 328 323 323 323 322 322 327 324 326 323 320 317 315
294 301 302 310 310 310 308 312 307 306 310 314 314 318 321 324 319 321 321 321 322 323 329 331 333 333 328 330 327 324 325 329 328 329 332 329 328 327 325 324 322 322 322 319 318 315 315 314 315
298 300 304 312 312 311 313 310 309 307 312 319 322 322 322 324 322 323 325 324 325 329 331 330 332 326 326 327 331 330 331 332 333 332 330 329 326 322 321 321 321 320 318 317 316 314 313 311 311
302 301 302 307 310 312 309 309 308 309 313 314 319 320 322 324 324 325 325 325 329 330 329 330 329 325 331 330 328 325 327 329 330 329 328 327 325 321 322 321 320 316 315 313 313 310 309 307 308
304 298 298 302 306 307 308 301 301 311 314 313 314 319 318 320 321 324 326 327 329 329 330 328 325 328 328 325 323 322 322 328 326 327 326 325 323 322 319 318 315 313 313 311 309 309 308 307 309
298 297 293 299 306 307 303 293 306 309 311 309 312 313 314 315 316 322 323 328 328 328 327 327 328 328 323 321 322 321 322 323 323 323 322 323 323 320 318 315 312 311 311 309 308 308 307 306 305
295 290 293 297 304 303 300 295 306 310 311 310 310 310 311 312 314 317 320 325 326 326 326 324 328 324 323 322 321 320 321 321 321 319 319 320 319 318 314 312 310 309 309 309 308 306 306 304 303
292 293 292 293 299 302 297 296 301 307 309 309 308 309 311 310 311 315 316 322 325 326 326 328 326 324 323 321 321 321 320 320 319 317 316 314 313 312 312 310 308 309 307 306 305 303 303 303 299
298 295 293 295 299 300 298 297 299 302 307 306 309 312 312 311 315 316 315 318 325 326 327 327 324 324 323 320 319 318 318 317 313 312 312 311 310 310 308 308 308 306 305 303 302 301 299 298 299
299 297 295 296 299 297 296 295 299 301 303 309 306 308 311 312 315 318 319 320 326 326 326 326 326 325 324 322 323 321 317 314 310 310 309 310 309 309 309 307 305 304 302 301 300 299 297 298 296
299 296 295 295 294 293 295 292 297 301 305 308 310 312 314 313 315 318 319 319 326 326 325 325 325 325 325 324 325 316 312 309 308 307 307 308 309 309 307 306 304 302 301 299 299 298 297 294 294
294 301 299 298 295 287 296 285 297 300 302 304 306 307 313 313 318 319 320 319 325 325 326 325 326 325 326 325 314 311 309 307 307 307 307 307 308 304 301 301 299 298 299 299 299 300 297 295 292
297 301 299 300 296 294 294 289 292 301 298 302 303 306 307 315 317 318 319 323 325 327 326 326 324 325 323 320 316 310 307 306 306 304 301 298 299 300 300 299 297 296 297 296 297 297 297 295 293
303 301 300 298 294 285 293 291 292 295 299 302 306 308 309 310 315 318 322 323 323 325 322 320 315 313 312 310 310 308 306 300 298 296 296 297 299 297 299 298 297 297 296 296 297 297 295 294 294
300 294 286 284 282 283 297 292 294 300 302 305 306 306 306 313 315 318 320 319 318 314 315 312 310 309 307 305 302 301 299 297 296 296 296 298 295 294 294 295 295 295 296 297 297 295 295 294 293
296 295 287 281 282 285 297 290 294 302 306 307 308 306 308 312 315 315 314 313 312 311 309 308 309 307 305 304 299 298 298 297 297 297 296 297 296 295 294 295 294 295 295 295 295 295 295 294 293
297 291 300 291 291 286 289 293 300 303 303 305 305 306 310 311 311 312 312 311 310 309 309 307 307 305 304 300 299 298 297 298 298 297 297 297 296 296 295 295 294 294 294 294 293 293 295 294 293
298 300 290 290 281 280 285 288 292 297 299 303 303 308 310 310 309 310 310 310 310 309 309 307 306 304 300 300 299 298 297 299 298 298 298 295 295 295 294 293 293 293 293 293 293 292 292 291 291
295 293 294 293 288 282 279 285 295 296 300 301 306 310 311 310 308 308 308 310 310 310 309 308 304 300 299 300 299 298 297 299 299 298 297 296 296 294 294 293 293 293 293 293 292 291 291 292 291
299 297 296 284 285 285 282 285 297 297 300 301 302 309 311 311 309 308 308 309 309 309 308 307 301 300 300 299 299 298 298 301 300 299 298 296 294 294 293 293 294 294 293 292 292 291 290 289 289

GFSSGP_sfc_thetae_030.txt.gz
Theta_e
318 315 309 306 293 288 285 291 296 303 310 316 323 322 320 322 319 308 334 338 342 343 344 344 345 347 347 347 345 344 343 341 340 340 341 340 339 339 338 338 337 337 334 334 334 333 333 333 333
314 312 307 298 286 282 286 294 298 310 315 317 318 320 321 321 330 329 332 340 342 343 343 343 345 346 346 345 344 343 341 340 340 339 339 338 339 338 339 338 338 338 335 334 334 333 332 332 334
313 315 302 292 283 283 285 298 309 312 316 314 314 317 319 323 328 331 335 339 341 341 341 343 344 344 345 344 343 342 342 341 340 339 339 338 338 338 338 338 338 337 335 334 333 333 332 333 335
307 300 295 287 285 289 294 296 312 312 314 317 315 310 320 332 334 334 336 337 337 338 340 341 342 343 344 343 343 342 340 338 338 339 340 339 337 336 337 338 337 335 334 334 333 333 334 334 334
305 295 286 284 287 295 306 310 313 311 313 315 316 311 318 331 333 334 334 336 336 337 338 339 339 342 343 343 342 340 339 338 338 339 339 338 337 336 337 337 337 336 334 333 333 333 335 334 334
297 293 285 284 291 307 310 312 312 313 314 315 312 314 320 333 332 334 336 336 337 335 336 338 340 341 341 341 339 338 337 337 337 338 338 338 337 337 337 337 337 336 335 334 334 334 333 333 334
296 293 287 289 291 301 310 312 311 311 311 311 316 313 322 325 333 333 334 334 334 333 334 336 336 338 338 337 336 336 335 335 336 336 336 335 335 335 336 336 336 335 335 333 332 332 331 331 331
298 293 288 289 291 293 309 311 312 310 309 318 320 312 317 324 329 330 330 329 329 328 330 330 333 335 334 334 335 335 334 334 334 334 334 333 333 334 334 334 334 334 333 332 330 329 330 331 331
299 291 287 290 296 302 310 308 315 316 312 319 324 322 323 327 328 326 324 325 326 328 328 327 331 333 332 332 333 334 334 333 333 333 332 329 327 327 329 329 331 332 330 330 328 328 329 327 328
295 289 291 296 306 304 308 307 311 309 312 314 319 322 323 325 324 320 319 321 324 325 327 328 332 331 330 331 329 328 328 326 325 325 325 323 324 325 328 329 330 329 328 328 329 329 327 322 314
295 292 296 301 307 308 305 306 311 309 305 311 312 318 320 320 321 321 320 322 322 325 324 327 330 331 328 327 325 325 324 321 322 323 323 323 325 324 323 321 320 320 325 321 320 317 314 313 313
294 298 299 304 310 308 307 309 305 305 310 315 318 320 319 319 319 320 320 319 320 324 326 329 331 331 326 325 324 322 321 323 323 329 328 326 324 321 321 319 320 319 317 315 314 312 311 309 311
296 299 303 309 309 310 311 309 305 308 311 318 322 321 319 319 319 319 319 320 321 323 327 329 331 330 326 325 323 325 329 331 330 328 328 326 320 319 320 318 317 315 314 313 311 310 308 307 307
302 300 306 309 309 310 308 308 305 307 315 316 319 320 319 318 318 319 320 320 321 324 328 330 330 324 326 327 327 328 330 329 327 326 326 324 320 320 319 317 314 313 311 310 308 307 306 306 306
303 296 302 307 308 307 308 301 301 309 315 315 318 320 318 317 319 319 321 321 324 329 329 328 324 328 328 325 324 323 325 326 324 324 324 322 322 319 316 314 311 311 310 308 308 307 306 305 306
297 295 291 303 306 307 301 294 304 308 312 311 313 318 319 318 321 323 323 324 328 327 326 325 330 325 323 320 319 321 322 322 322 321 321 322 320 318 315 311 309 309 309 307 306 305 304 304 303
292 287 291 295 304 304 298 295 304 307 309 308 309 314 318 320 322 324 325 327 328 326 326 323 325 322 320 320 319 319 320 320 319 318 319 319 318 317 312 309 307 308 307 305 305 304 303 302 299
290 291 291 292 296 300 297 296 304 307 308 309 306 307 310 316 320 324 326 327 326 325 326 326 324 321 320 318 319 319 318 318 317 316 316 312 311 312 309 307 306 306 304 302 301 300 299 299 297
298 295 293 296 297 298 297 295 304 306 307 307 305 306 308 313 317 320 326 326 323 324 323 324 322 321 320 318 316 316 316 315 315 313 311 309 308 309 307 306 304 304 302 300 300 298 297 297 296
297 294 293 296 298 298 295 294 299 301 305 307 307 308 308 309 311 315 321 322 322 322 324 323 323 321 320 319 318 319 316 312 310 308 308 307 307 307 306 305 303 302 301 299 298 297 295 296 294
296 294 294 294 294 293 293 292 294 299 305 309 310 311 311 311 311 312 316 320 321 321 323 323 323 322 320 320 320 315 310 308 306 305 305 306 307 307 305 304 302 301 300 299 298 298 296 293 293
292 298 297 296 292 285 292 285 293 297 299 306 306 306 310 312 313 316 316 320 321 323 324 324 324 323 322 320 318 314 311 307 305 304 304 305 306 301 300 299 297 297 296 295 296 299 295 293 291
295 299 297 297 293 290 291 286 290 296 295 301 303 305 307 311 314 315 319 322 323 323 323 323 323 323 323 322 315 311 307 306 306 304 302 298 297 298 299 297 296 296 295 295 295 295 295 293 291
301 298 297 296 293 284 291 288 288 293 297 297 302 305 307 309 313 315 321 324 323 323 323 323 322 321 319 321 312 310 305 303 301 296 294 295 296 297 296 296 295 294 294 295 295 294 294 293 293
298 292 284 283 282 282 294 289 290 298 300 301 302 302 305 311 313 316 319 321 322 322 322 322 316 308 308 309 306 305 301 300 297 296 295 295 297 296 295 295 295 294 294 294 295 294 293 292 291
294 292 284 280 279 284 294 288 293 300 303 304 304 304 307 310 315 317 318 319 319 319 316 313 309 303 302 302 300 299 298 297 297 296 298 297 296 295 295 295 294 293 293 292 292 292 293 293 291
295 289 295 288 288 285 288 291 297 300 300 302 302 304 306 309 313 313 312 313 310 308 308 309 307 304 301 300 300 300 299 298 298 297 297 297 296 296 296 294 292 295 293 292 291 291 292 292 292
297 298 289 288 281 281 284 286 289 296 298 300 301 301 307 309 310 311 311 310 310 308 307 306 305 304 301 300 299 299 299 299 298 298 297 297 296 296 295 294 294 292 292 291 291 291 291 290 290
294 292 292 291 286 281 279 284 292 296 299 301 301 303 308 309 311 311 311 311 310 309 307 306 303 300 300 299 297 298 298 298 299 299 297 297 296 296 295 293 294 292 292 291 290 290 290 290 290
296 295 294 283 284 283 281 285 296 296 299 302 303 306 310 310 311 311 311 310 309 308 307 306 303 300 299 299 298 297 298 300 299 298 297 296 295 295 293 293 292 292 292 292 290 290 290 290 288

GFSSGP_sfc_thetae_033.txt.gz
Theta_e
317 312 306 304 291 287 284 289 292 296 308 318 322 319 318 320 316 306 334 336 342 343 344 344 345 346 346 345 345 344 342 339 338 338 339 339 339 340 338 338 338 338 336 334 334 333 333 334 337
311 309 304 294 285 281 284 290 294 298 315 320 319 321 320 319 328 329 331 340 343 343 343 342 344 345 345 344 343 342 340 338 339 338 337 338 337 338 339 339 338 338 337 334 334 333 333 333 336
310 311 302 290 282 282 284 292 307 311 315 314 312 316 320 322 329 330 338 341 343 342 341 343 343 343 344 343 342 341 340 339 339 339 338 337 337 336 337 339 338 338 335 334 334 333 332 334 334
305 300 294 286 284 287 290 294 300 311 313 316 314 309 325 332 330 334 340 341 340 340 341 341 342 342 343 342 342 341 339 338 339 339 339 339 337 336 337 338 338 337 334 334 333 333 335 333 333
301 293 287 283 286 291 306 309 311 310 313 315 315 315 320 329 333 335 336 338 336 337 339 340 340 341 342 343 341 340 339 339 339 339 339 339 338 337 338 337 337 337 334 333 333 335 335 333 331
295 291 286 284 289 298 308 309 311 312 313 314 313 315 320 332 330 333 336 334 335 335 337 338 340 339 340 340 339 338 337 338 338 338 338 339 338 337 337 337 337 336 335 335 334 333 334 333 331
294 291 287 288 289 292 307 310 310 309 310 312 317 313 321 327 331 333 332 329 329 330 334 335 335 337 337 336 336 336 336 337 337 337 337 337 336 336 336 336 335 335 334 333 332 331 332 333 331
296 292 288 288 288 290 308 311 311 309 308 318 320 314 315 324 329 330 328 327 325 325 328 330 331 334 333 332 334 334 334 335 336 336 335 333 334 334 334 334 334 333 332 332 331 330 331 332 330
296 290 287 289 291 300 308 308 312 315 316 319 322 320 323 328 328 327 326 324 322 322 323 325 330 331 331 331 332 333 334 334 334 333 332 329 325 325 327 330 331 330 329 329 330 330 328 324 328
294 288 292 295 299 302 307 305 310 311 313 314 316 322 325 326 324 322 320 321 318 317 320 322 325 331 330 331 329 327 327 325 326 325 325 322 323 325 326 329 329 328 327 329 328 327 323 318 312
293 292 295 297 306 306 306 305 311 310 307 312 312 316 321 322 322 321 321 322 321 321 323 320 323 329 327 327 325 324 322 322 322 323 322 323 323 324 321 319 319 320 322 315 315 313 312 311 309
292 296 297 298 309 307 306 307 305 305 309 318 317 319 319 319 319 319 320 322 323 323 324 324 328 330 326 324 323 322 319 320 320 321 322 323 321 321 319 319 319 316 314 312 311 309 308 307 308
294 297 298 302 308 307 310 305 307 307 314 318 319 319 318 319 320 321 321 320 322 322 323 325 329 329 326 322 321 320 323 324 328 328 326 323 319 318 317 316 315 313 312 310 308 306 306 306 306
301 299 306 306 308 309 306 306 309 308 318 317 317 316 316 316 318 317 318 318 320 323 325 327 328 330 325 322 323 325 327 327 326 325 323 320 319 318 316 314 312 310 309 308 307 305 305 304 304
302 296 304 305 305 305 307 300 304 311 317 316 315 316 316 316 317 316 317 317 320 322 325 326 326 323 324 323 324 325 325 325 323 323 322 320 320 318 314 311 310 309 307 307 306 305 305 304 303
296 294 292 302 305 305 302 294 302 311 313 313 316 317 317 316 317 318 318 318 321 323 326 327 327 325 322 321 321 322 322 322 322 321 321 320 318 316 312 309 308 308 307 305 304 304 302 301 298
292 287 290 298 304 302 299 295 302 309 313 312 315 316 315 315 316 319 320 320 322 325 326 322 325 322 320 318 319 320 320 319 319 319 319 319 317 315 310 307 307 306 304 303 303 300 301 298 297
287 289 288 290 294 300 299 295 304 306 310 311 309 314 315 314 315 321 321 322 324 325 325 324 322 320 319 317 318 318 317 316 316 316 316 313 313 311 307 306 305 303 301 300 299 297 298 296 296
295 292 291 294 298 297 296 296 302 304 305 305 305 308 315 316 319 322 323 323 325 323 322 323 320 318 318 317 316 314 314 314 314 313 310 309 310 308 305 304 303 302 300 299 299 297 296 295 294
296 293 294 295 297 295 294 294 299 303 305 307 306 306 309 317 318 321 322 324 324 323 322 322 321 318 318 318 316 317 315 312 311 309 307 307 307 306 305 303 301 300 299 297 297 296 295 295 293
294 292 293 294 294 292 293 291 294 298 305 306 308 309 310 311 316 318 321 322 322 321 322 322 321 320 318 318 317 312 308 307 305 304 303 305 306 305 304 302 300 299 299 296 296 296 295 293 293
291 296 295 294 291 284 290 283 291 295 300 304 307 306 308 309 314 316 320 321 320 319 322 323 322 320 319 318 317 313 311 308 304 303 303 304 304 301 299 297 296 296 295 294 295 296 294 292 291
294 298 295 295 291 288 289 285 288 294 294 301 305 307 309 309 311 312 316 320 321 320 321 322 321 322 321 319 318 314 309 305 304 303 302 296 297 297 298 297 297 296 295 294 294 294 294 293 290
299 296 294 293 291 282 289 286 286 291 295 299 306 307 307 307 309 312 314 318 319 320 321 321 321 321 321 319 316 313 307 304 303 299 295 295 295 296 295 296 295 297 296 294 295 293 293 293 292
296 290 282 282 281 281 291 288 290 295 298 299 300 304 304 308 310 313 317 318 319 320 320 321 321 320 319 319 313 309 306 304 303 299 295 296 295 294 295 296 296 296 295 295 295 293 293 291 290
293 290 283 280 279 282 291 286 291 298 300 300 301 301 302 306 312 315 318 320 319 320 320 321 319 311 310 311 307 304 303 304 305 303 299 297 296 296 296 296 296 295 295 294 290 290 291 292 291
294 289 293 286 285 283 286 290 295 298 299 300 300 303 305 307 311 315 319 320 319 320 319 318 310 306 304 303 301 299 301 301 301 301 298 297 297 296 296 295 295 295 294 291 291 290 290 291 291
296 297 287 286 281 280 283 284 287 294 296 298 299 300 305 307 310 312 315 315 316 314 310 309 306 303 301 300 301 300 301 300 299 298 297 296 296 297 296 295 295 294 292 291 290 290 291 290 289
293 290 290 289 284 280 278 284 291 295 297 297 299 300 303 307 310 312 314 313 312 309 308 306 303 300 299 300 299 298 297 298 297 297 297 296 297 296 296 295 294 292 291 291 291 290 289 289 288
295 292 291 283 283 282 280 283 294 294 296 297 301 301 304 308 310 312 312 310 308 308 307 305 304 301 301 300 299 299 297 297 298 297 297 297 296 295 295 293 292 291 291 291 290 289 289 288 287

GFSSGP_sfc_thetae_039.txt.gz
Theta_e
321 313 313 308 298 296 292 294 297 298 304 321 325 321 319 319 316 312 336 338 343 342 343 344 344 345 345 345 344 344 344 342 341 341 342 341 340 340 340 340 340 341 341 342 343 341 340 339 341
314 311 310 302 295 290 292 295 297 310 313 318 318 320 321 317 326 328 331 342 343 342 342 342 343 343 344 343 343 343 342 340 341 341 341 340 341 341 340 339 339 340 341 342 343 343 341 339 342
313 311 308 299 293 291 292 295 305 313 316 316 315 323 323 321 328 330 339 343 342 342 342 342 342 342 343 342 341 341 340 339 340 340 340 341 341 341 340 339 338 339 340 339 340 341 341 340 339
310 309 299 295 292 293 294 296 309 311 315 317 318 318 326 331 331 336 341 343 341 342 342 341 341 341 342 341 341 340 339 338 339 339 340 341 341 341 340 339 339 339 338 336 336 336 337 336 335
304 301 296 292 290 294 296 309 313 311 313 316 318 317 320 330 337 338 339 341 338 340 341 341 339 340 341 342 341 340 339 338 339 339 340 340 340 340 339 339 338 338 337 336 335 335 335 334 334
302 298 293 290 292 295 304 313 314 313 314 316 317 318 320 332 328 331 333 336 339 337 339 339 339 340 340 339 339 339 339 339 338 339 339 340 340 338 338 338 337 337 337 335 334 335 334 333 333
300 298 293 292 293 295 305 313 311 312 311 312 320 315 322 324 327 328 329 330 335 335 334 332 333 334 337 336 337 337 338 339 338 339 338 338 337 336 336 336 336 336 336 336 334 333 334 333 332
302 299 293 293 292 293 307 312 313 312 311 322 324 314 316 322 327 327 328 329 328 330 328 324 324 327 331 335 336 336 337 337 338 337 335 334 334 334 335 334 334 334 334 335 334 332 332 332 328
301 297 293 293 293 297 310 310 314 320 317 318 321 322 325 324 325 323 323 323 322 321 321 320 319 327 330 332 336 336 337 336 334 334 333 329 329 330 329 330 331 332 333 332 332 330 328 326 324
301 296 295 299 299 301 309 310 313 314 314 314 318 325 324 323 322 320 319 318 318 317 317 318 325 327 330 329 333 333 333 332 331 329 330 329 331 329 328 328 329 330 329 328 327 324 322 320 317
298 296 298 300 300 307 308 308 313 312 310 314 314 318 322 323 319 319 318 318 316 318 320 322 324 328 328 327 327 329 329 329 329 330 329 330 330 330 328 328 328 329 323 320 318 317 316 317 315
297 299 299 300 308 308 307 310 311 310 312 319 320 321 322 320 317 317 317 318 319 319 319 323 322 323 325 328 325 326 326 327 327 327 330 330 329 327 326 327 323 321 318 318 317 316 316 315 314
297 299 301 304 309 309 310 307 309 311 317 321 321 321 320 321 317 317 318 319 320 319 321 319 322 323 329 328 325 325 326 326 329 328 329 329 329 327 327 323 321 319 318 317 316 316 314 313 312
302 302 306 308 309 310 309 310 310 313 318 317 317 317 320 320 319 318 317 318 318 319 321 323 323 327 332 327 326 325 326 327 327 327 330 330 330 327 324 321 318 317 317 317 316 315 313 311 311
303 302 305 307 308 308 308 303 306 315 317 315 316 317 319 319 320 320 320 319 322 322 322 322 325 330 331 328 327 326 327 328 329 330 331 328 328 325 323 320 317 316 316 316 316 314 313 311 308
297 298 295 304 307 307 304 298 308 316 315 313 315 316 316 318 320 323 324 323 325 324 323 323 326 329 331 327 326 326 329 330 331 331 329 327 326 323 320 318 316 316 316 315 314 312 310 309 308
296 292 294 301 307 306 303 299 308 316 314 312 314 315 316 315 318 321 323 324 325 326 326 325 327 329 331 328 327 328 329 331 330 329 328 326 324 322 320 318 316 316 314 313 311 310 310 307 307
293 293 295 295 299 304 302 300 308 313 313 312 314 315 316 317 317 321 322 323 324 326 327 327 328 330 329 328 327 328 329 330 330 330 329 325 324 319 318 316 315 314 311 310 309 308 308 307 307
297 296 294 296 300 300 302 301 306 311 312 312 313 315 316 318 321 320 322 323 323 325 326 328 328 329 327 325 324 325 326 327 327 326 326 325 321 317 316 314 312 312 311 309 309 307 307 306 306
297 295 294 297 298 298 297 297 302 309 311 313 314 315 317 318 319 320 321 322 323 323 326 329 328 328 327 327 326 326 326 324 324 322 321 322 318 316 315 313 311 310 308 308 308 308 306 306 305
296 295 294 295 297 297 296 295 299 305 309 312 314 316 316 317 318 318 319 321 323 323 325 327 328 327 327 328 325 320 320 318 317 316 316 317 315 314 313 311 309 309 309 306 306 306 305 301 303
294 298 297 295 294 290 294 289 293 300 305 307 311 313 314 316 318 321 320 321 322 323 326 327 328 327 326 325 324 322 322 319 318 316 314 313 313 311 310 309 308 306 305 305 304 304 304 303 300
297 299 297 297 294 293 292 291 294 296 299 305 309 311 313 316 317 319 321 323 324 326 327 328 328 327 326 325 325 324 322 321 317 313 311 310 310 309 307 306 305 304 304 304 304 304 302 301 299
300 297 295 295 294 289 291 292 293 295 299 303 308 311 312 314 315 317 322 325 325 327 327 328 327 326 325 323 323 322 321 316 313 310 307 306 306 305 304 303 304 304 303 303 302 300 300 298 302
298 294 289 287 288 287 293 291 295 299 299 302 304 308 313 315 316 316 317 320 324 325 326 326 326 322 322 322 321 320 318 316 315 310 306 303 302 303 301 302 302 301 302 301 298 298 299 302 301
296 295 290 282 283 287 292 289 295 301 302 304 304 304 305 311 315 315 316 319 322 324 325 325 325 323 321 321 321 321 319 317 316 312 307 304 304 302 302 302 302 302 301 300 297 298 300 301 301
295 293 295 289 288 288 290 293 298 300 302 304 304 305 304 306 311 314 315 317 320 323 324 325 325 325 322 322 322 321 319 317 315 310 306 306 303 301 302 303 303 302 298 299 298 299 299 300 301
298 298 291 291 284 282 287 288 291 296 298 300 303 305 306 308 308 311 314 316 318 322 324 325 325 325 325 324 322 319 320 319 314 308 306 306 303 302 301 302 302 299 300 296 299 299 299 299 300
295 294 292 293 290 286 283 288 297 298 300 301 302 303 306 308 312 313 315 319 320 322 323 323 324 325 324 322 321 319 316 316 312 308 307 304 303 302 301 302 298 297 299 299 298 298 297 297 298
297 296 295 291 287 287 287 288 298 300 299 299 301 302 306 308 311 314 317 319 321 322 322 322 322 321 320 318 314 315 313 310 308 307 306 304 303 302 301 300 297 297 298 298 297 296 296 296 296

GFSSGP_sfc_thetae_042.txt.gz
Theta_e
325 321 319 315 302 301 298 299 304 303 307 321 325 323 320 324 319 314 340 341 345 341 342 346 345 347 347 347 346 345 345 344 343 342 342 341 341 342 342 341 342 343 342 341 341 342 342 339 338
319 315 316 311 297 295 297 302 301 309 313 324 324 325 323 320 328 329 333 340 345 343 341 342 344 345 345 345 344 344 343 342 342 342 342 341 343 342 342 341 342 345 346 343 342 342 341 339 339
319 317 310 304 299 294 297 301 305 311 318 318 320 327 324 323 330 332 340 344 345 343 341 343 343 343 344 343 343 342 341 341 342 341 342 343 342 342 342 341 341 344 347 345 342 343 341 339 338
316 314 309 298 296 299 300 303 308 310 317 320 321 319 329 332 333 337 344 345 344 342 341 341 341 342 343 343 342 340 340 340 339 341 342 342 342 342 341 341 340 341 343 343 342 340 337 336 336
314 310 300 297 297 299 302 304 311 312 316 318 321 320 324 331 339 342 343 343 341 341 344 341 339 341 342 342 341 340 340 338 339 340 341 341 341 341 341 340 338 339 340 339 338 336 336 335 335
307 307 297 296 296 300 303 310 312 316 318 319 320 322 323 331 334 336 344 343 340 339 342 340 340 340 340 340 339 338 338 339 339 340 340 341 341 340 340 339 338 337 337 338 337 335 335 334 332
305 302 297 297 297 300 307 317 315 316 316 316 323 318 324 327 329 331 335 341 339 338 337 337 338 337 336 337 337 337 338 339 339 339 339 338 337 337 337 337 337 337 335 336 335 335 334 332 330
308 304 297 299 300 300 308 315 317 316 315 324 326 317 319 324 328 329 328 331 329 331 331 330 329 326 327 336 336 337 337 338 338 338 336 334 334 335 335 335 336 336 335 334 335 334 332 329 327
309 301 298 298 299 301 311 308 318 322 319 321 324 325 329 326 331 325 321 321 321 322 325 325 325 327 327 333 337 337 338 337 335 334 333 329 328 329 330 331 333 335 334 333 332 331 328 327 324
305 301 299 304 304 303 307 310 315 316 316 318 320 324 325 327 328 322 319 315 314 316 320 322 321 323 327 332 333 335 333 331 331 329 329 328 331 330 328 330 331 331 330 329 327 325 325 325 323
305 301 305 305 306 305 306 312 316 314 312 317 317 318 322 323 324 321 321 321 314 316 317 316 317 320 325 328 332 332 331 331 330 332 330 332 331 330 330 329 330 329 328 325 323 322 323 322 322
301 306 306 305 308 308 309 313 312 315 317 322 324 322 321 319 320 321 317 316 315 316 319 314 315 318 324 327 327 327 325 326 327 329 331 331 329 330 330 330 332 330 328 326 324 323 323 321 320
303 305 307 309 309 313 313 311 311 315 320 323 323 322 320 319 319 319 319 318 318 317 319 320 321 321 322 323 326 328 328 326 327 329 330 330 328 329 330 330 329 328 326 324 323 322 320 320 319
307 306 311 311 311 312 311 312 314 318 322 320 321 319 319 317 317 319 319 318 316 317 317 319 319 323 325 325 326 327 328 327 329 328 331 333 330 331 332 330 327 325 325 324 323 322 321 319 318
307 304 309 310 312 312 313 307 311 319 319 317 317 320 318 317 319 318 320 320 320 319 320 321 324 326 328 331 328 326 327 327 327 328 335 336 335 333 332 329 326 324 325 324 323 321 320 318 316
304 304 298 306 311 312 311 302 314 319 317 316 317 317 320 318 319 321 321 321 321 323 324 325 324 328 332 331 329 325 328 328 327 332 335 336 335 333 331 327 325 324 324 323 322 320 317 317 316
302 297 298 301 311 310 309 303 312 318 315 314 315 316 318 319 320 323 324 324 324 325 325 326 327 328 333 335 330 329 329 329 330 335 334 334 331 330 329 327 325 325 323 322 319 318 319 313 313
296 297 299 299 306 309 307 305 311 316 315 313 315 315 316 319 320 324 327 326 326 327 327 326 328 331 333 334 331 327 326 328 333 336 335 333 331 328 328 326 325 324 321 319 317 316 314 314 312
301 299 298 301 304 303 303 304 307 314 315 314 314 316 317 317 321 325 328 330 329 329 328 328 329 331 332 332 329 325 323 327 332 334 335 332 331 329 328 326 324 322 319 318 317 314 312 310 311
301 299 298 301 303 302 302 301 306 312 314 315 315 316 317 318 321 321 325 327 328 328 330 330 329 330 332 333 332 327 328 328 330 333 334 333 332 328 326 324 321 320 318 316 314 313 310 310 311
301 299 298 298 302 302 300 299 302 309 315 317 318 318 319 319 320 321 321 325 327 327 328 329 330 332 333 333 332 328 331 331 330 330 329 330 329 326 325 323 321 319 317 314 314 311 308 308 309
297 302 301 300 299 294 300 292 300 305 308 313 315 318 318 319 322 323 323 323 325 327 329 329 331 333 334 334 332 328 325 324 327 328 327 326 326 325 322 320 319 318 316 313 311 309 310 306 303
299 303 301 301 299 298 297 295 299 302 302 307 313 316 319 319 321 322 324 325 326 327 328 330 331 333 333 333 333 330 329 328 330 328 325 324 323 321 320 319 318 316 313 312 309 309 307 304 303
304 302 301 302 300 292 296 296 297 300 301 304 309 314 317 320 321 323 325 327 328 329 330 330 330 330 333 333 332 331 331 330 326 324 321 320 319 318 316 315 315 314 311 310 309 310 307 302 304
303 299 293 290 291 290 298 295 298 303 305 307 308 310 315 319 321 323 323 325 328 329 330 331 330 328 330 329 327 328 329 330 324 324 321 317 316 313 312 312 311 310 308 308 309 304 305 302 305
301 300 293 284 287 291 296 292 299 305 307 309 311 312 313 314 320 322 324 325 327 329 332 332 329 327 329 329 323 327 327 326 325 326 322 318 312 312 310 309 309 307 307 306 304 302 301 304 303
300 296 301 294 295 292 294 297 302 304 304 306 308 311 312 313 315 318 322 325 326 329 331 333 332 329 331 329 325 325 326 324 323 324 322 316 312 309 308 308 305 306 305 304 301 301 300 303 304
302 304 295 297 286 285 292 293 296 299 301 304 305 308 312 314 314 316 318 321 324 327 330 333 333 332 332 330 327 325 326 325 324 323 320 313 311 309 307 307 306 305 303 301 297 297 302 302 303
300 298 299 298 296 289 287 292 302 302 303 305 306 308 311 314 316 317 319 322 324 325 328 329 330 330 331 331 330 325 325 325 324 323 320 316 313 308 305 304 305 303 300 299 299 301 300 301 299
302 300 300 294 291 295 293 293 304 306 306 306 307 307 311 314 315 319 321 323 324 325 326 327 328 328 330 331 331 328 325 322 320 317 316 313 309 304 306 306 304 300 302 300 299 299 299 300 299

GFSSGP_sfc_thetae_045.txt.gz
Theta_e
328 326 322 315 302 302 298 301 307 304 306 316 321 318 316 319 316 307 338 345 346 342 344 348 347 349 349 349 348 347 347 345 344 344 343 342 343 343 343 343 343 344 345 344 340 338 338 338 337
324 317 316 310 299 295 298 303 302 305 314 317 321 321 319 320 331 332 335 345 342 341 343 349 346 347 347 347 346 345 344 343 343 343 342 343 343 344 344 344 344 345 345 344 341 339 338 337 336
321 318 310 305 301 296 297 303 305 311 314 314 315 324 323 324 332 335 341 346 340 339 341 348 345 345 345 345 344 343 342 342 342 342 343 344 343 343 344 345 345 346 346 344 341 338 337 336 337
316 315 310 299 297 302 302 305 306 308 312 316 316 317 330 336 335 337 344 346 342 337 339 342 342 343 344 343 342 342 341 340 340 341 343 343 343 343 343 344 345 346 345 343 339 337 335 337 336
315 311 301 300 299 302 304 306 306 308 311 316 318 316 324 335 340 343 343 347 343 337 340 343 340 342 342 342 342 341 340 340 341 341 341 342 342 342 341 341 343 344 344 341 337 335 335 336 335
309 309 299 296 299 301 304 307 310 310 315 318 318 317 327 336 337 338 345 345 346 342 340 339 341 341 340 340 340 340 339 340 340 340 341 341 341 340 339 339 340 341 340 338 337 336 335 333 331
306 304 300 299 299 302 307 317 315 315 315 317 325 316 327 331 330 334 341 343 340 338 337 337 336 340 338 337 337 337 339 339 340 340 340 340 338 338 338 337 338 338 337 336 335 334 333 331 330
308 306 300 300 300 300 309 312 317 316 315 325 326 317 319 329 327 328 329 331 332 333 331 327 327 335 337 336 336 337 338 338 338 338 336 335 335 335 336 335 335 336 336 336 335 333 331 329 328
311 302 298 299 301 302 309 308 317 321 319 322 325 327 330 330 326 323 322 322 325 327 328 326 321 321 327 335 337 337 338 337 335 335 333 330 328 328 328 333 335 334 334 334 333 331 329 328 326
306 303 301 306 307 305 308 311 315 316 316 318 323 328 328 329 327 324 319 316 318 321 322 320 319 319 321 324 331 334 334 333 331 330 330 329 330 330 329 332 332 332 331 332 331 329 327 326 323
307 302 306 307 308 309 308 310 316 315 311 309 318 321 324 326 323 323 320 319 317 319 319 321 320 320 324 325 329 332 332 331 329 331 331 334 332 331 329 329 328 329 328 324 323 322 325 326 324
304 308 308 308 308 309 310 310 312 315 317 323 326 323 322 320 320 319 316 314 313 314 316 318 320 321 323 322 326 331 329 329 328 331 337 333 330 333 331 328 330 329 328 327 327 326 327 325 323
305 307 309 311 310 313 315 313 312 316 321 325 323 321 320 320 319 318 316 316 315 312 313 314 317 319 321 322 324 327 327 324 326 330 332 332 330 333 331 331 331 330 330 328 326 325 323 323 321
308 308 310 311 312 313 311 313 315 319 322 320 321 319 318 318 318 317 316 315 316 312 312 314 318 320 319 320 323 327 329 328 331 330 332 335 331 333 330 331 330 330 329 328 326 325 323 322 320
308 305 309 308 310 310 314 302 310 319 319 316 318 320 319 319 320 318 317 316 315 316 317 317 317 317 318 320 321 324 329 328 329 329 335 333 334 335 334 331 329 329 329 328 327 325 324 320 318
304 305 299 307 311 312 309 295 313 318 316 315 315 320 319 320 319 322 321 319 318 316 315 316 315 317 325 326 325 324 328 328 326 327 331 335 333 333 334 331 330 329 328 327 325 324 321 318 317
303 298 299 301 309 310 308 300 314 317 316 314 314 317 319 318 320 320 321 321 320 320 317 318 323 323 326 327 329 327 329 327 325 329 330 335 335 335 333 331 330 330 327 326 325 323 321 316 314
297 298 300 300 302 307 305 305 312 316 314 314 313 316 318 315 319 321 322 320 320 323 322 321 325 326 330 332 329 326 324 327 327 328 330 334 334 333 332 331 330 329 326 325 323 321 318 315 314
302 300 299 302 306 303 303 304 306 315 315 312 314 314 316 317 318 323 322 323 322 324 325 326 326 327 330 329 326 323 321 323 325 329 332 334 334 332 331 330 329 328 326 324 323 319 315 313 312
302 299 299 302 304 303 303 302 306 312 314 314 313 315 314 316 321 323 325 325 326 326 326 326 326 327 331 331 330 326 325 323 326 329 333 334 334 333 331 331 328 327 324 323 321 318 314 313 312
301 300 299 299 304 305 303 301 303 309 314 315 315 315 317 316 317 320 323 325 326 325 326 327 328 329 330 331 331 329 326 326 324 327 329 332 333 333 331 330 328 326 324 320 319 317 315 310 312
298 304 302 301 300 295 303 292 299 306 308 313 314 315 316 318 319 319 321 325 326 328 330 330 330 330 330 332 331 328 323 323 327 329 330 331 333 332 330 328 327 324 322 321 319 316 314 313 310
301 304 303 302 301 300 299 295 300 304 303 308 313 315 316 318 319 320 320 321 326 329 329 331 331 330 332 333 332 331 327 327 329 330 330 331 331 330 327 326 325 323 321 320 318 315 313 312 308
306 303 303 303 301 293 298 297 295 300 302 305 311 315 317 317 319 321 323 323 323 326 330 333 329 329 331 332 332 332 330 329 330 331 328 327 327 327 326 324 323 323 320 318 315 313 312 308 308
304 301 293 291 292 291 299 296 298 303 306 307 308 311 316 319 319 320 321 323 325 325 328 330 329 327 331 333 331 332 332 332 326 328 327 325 324 323 323 322 320 317 315 315 313 310 308 306 302
302 301 295 285 289 292 299 293 298 307 308 309 311 312 313 316 319 320 321 323 325 327 328 330 328 328 329 331 330 331 332 331 329 326 325 323 322 321 322 318 313 312 312 310 308 307 304 303 304
302 298 304 296 298 293 296 299 303 305 305 307 308 311 314 315 317 320 322 323 325 327 331 334 331 330 330 332 327 329 331 329 329 327 327 323 321 320 317 312 309 309 307 308 308 304 300 305 304
304 306 296 298 288 287 293 295 296 301 302 304 306 308 311 315 316 318 320 323 326 328 333 338 335 333 331 330 332 330 329 328 328 327 325 322 321 316 311 309 308 308 308 308 305 303 302 301 304
301 300 301 300 297 290 289 294 303 302 304 305 307 308 310 312 317 318 320 321 324 327 329 332 334 334 332 332 331 331 328 328 327 325 324 322 318 313 311 310 307 305 306 304 302 300 300 302 301
304 301 301 295 293 296 295 295 307 306 307 307 308 309 311 313 315 319 321 323 324 325 327 330 332 333 333 332 330 330 328 328 324 323 321 320 317 316 312 308 304 306 304 301 299 300 300 300 299

GFSSGP_sfc_thetae_048.txt.gz
Theta_e
326 325 322 316 300 300 295 297 304 302 305 313 318 313 309 313 310 310 327 329 328 330 348 349 348 349 349 349 348 348 347 346 346 344 344 343 345 345 345 345 346 346 342 339 339 338 336 334 335
323 323 317 307 297 293 295 302 300 305 312 315 313 312 311 309 322 331 331 329 330 340 345 348 347 348 348 347 347 346 346 345 344 344 343 344 345 345 345 344 344 345 343 339 339 337 335 334 336
320 319 307 303 299 294 295 302 304 307 313 313 312 314 316 314 317 334 341 339 341 341 345 346 345 346 347 346 345 344 344 343 342 342 344 344 345 346 346 344 344 345 344 339 338 336 335 335 336
317 313 309 299 295 299 300 303 306 306 309 313 314 309 328 335 332 338 343 339 338 339 343 342 341 343 345 345 344 343 342 341 341 342 343 344 345 347 346 345 344 345 343 338 336 335 334 336 334
315 309 300 298 298 302 304 305 306 304 307 311 312 311 322 332 339 340 343 339 338 340 342 342 340 342 343 344 343 342 341 340 342 342 342 343 344 346 346 344 344 344 341 338 335 334 335 334 332
307 308 297 294 298 302 309 309 311 307 309 312 311 311 309 328 333 336 344 341 341 340 341 341 342 341 341 341 341 340 340 341 341 341 341 342 341 341 343 343 343 341 339 338 337 336 335 333 331
304 302 298 298 300 303 306 310 306 311 313 312 314 309 308 320 328 334 340 339 338 338 339 339 338 338 337 337 337 338 339 340 340 340 340 339 337 338 340 341 341 339 337 336 335 334 333 332 330
308 303 298 299 298 299 307 310 312 312 310 318 315 315 315 324 327 329 331 333 333 333 332 331 333 333 333 334 336 337 338 338 338 338 336 335 335 336 337 337 337 336 336 335 334 333 332 330 328
310 299 297 299 300 302 308 307 313 314 315 316 316 320 326 326 326 324 324 326 327 328 328 328 328 329 330 332 336 337 338 337 335 335 333 329 326 326 329 334 335 335 334 333 332 331 329 327 325
305 300 301 305 306 304 306 307 312 308 313 309 309 318 326 326 325 319 318 319 320 320 323 326 325 323 324 329 331 334 334 332 331 329 328 325 325 327 328 332 332 333 332 331 330 329 327 325 316
306 301 305 306 307 308 306 308 311 311 310 309 310 318 323 323 323 321 317 316 319 319 318 319 322 322 323 324 326 328 328 328 329 328 329 330 326 327 328 327 325 326 328 322 322 323 321 321 320
302 306 307 307 309 308 306 312 311 316 318 318 320 322 321 320 320 317 315 315 316 318 316 317 320 320 320 321 323 324 327 327 326 327 331 330 327 326 326 325 326 323 322 319 321 320 323 320 320
304 305 307 310 310 309 311 309 309 316 321 323 321 320 320 318 316 316 315 313 313 313 316 318 319 320 319 319 321 323 325 326 325 325 330 329 327 327 326 326 326 325 326 323 324 322 320 319 317
307 307 306 311 309 311 306 306 308 316 320 320 320 319 318 317 315 314 314 312 312 312 314 317 318 319 319 317 317 320 324 325 322 323 329 329 329 327 328 330 329 329 326 325 323 321 319 318 316
307 302 305 308 310 308 309 302 303 310 317 317 318 317 318 316 317 314 315 312 313 312 314 316 317 319 318 318 320 321 323 326 328 328 329 330 332 329 330 328 329 326 326 325 323 321 320 317 316
303 303 298 306 309 310 307 297 305 312 314 313 317 318 316 316 317 317 315 312 313 313 316 316 318 316 317 318 320 320 322 326 327 327 329 330 331 330 329 329 327 327 325 323 322 320 318 316 313
301 295 299 302 308 308 307 299 306 311 314 311 315 315 316 317 318 318 317 315 315 315 315 314 315 315 315 318 314 316 320 324 325 326 327 331 331 332 330 329 328 327 324 323 322 320 318 313 310
296 297 299 299 305 305 304 304 308 314 313 311 313 314 314 314 315 319 318 317 317 317 317 315 314 314 319 321 314 318 322 324 325 324 325 330 331 332 330 329 327 325 323 322 321 318 316 313 310
300 298 299 302 306 305 302 303 306 308 310 311 311 313 313 315 318 319 318 319 318 315 316 315 313 316 321 321 319 321 319 322 323 324 325 331 330 331 329 328 327 324 323 321 321 317 313 308 307
300 298 298 302 306 303 301 301 307 308 311 311 311 313 312 315 318 318 316 318 318 317 317 319 320 320 323 323 324 324 322 321 323 324 327 331 330 330 329 327 325 324 323 321 318 315 310 310 308
299 298 299 299 303 305 302 298 303 310 311 312 313 314 315 314 316 317 317 318 319 320 320 321 322 322 324 327 327 326 324 321 319 322 328 330 331 330 329 328 326 324 323 319 317 315 312 307 306
296 303 302 300 298 293 302 291 300 303 306 310 311 313 314 315 318 319 320 320 320 322 324 325 324 324 324 328 327 326 321 318 319 321 326 329 330 329 329 329 327 324 322 318 316 315 312 309 305
299 305 303 301 298 298 298 295 298 303 302 307 311 313 315 316 317 319 320 323 323 325 325 325 325 325 327 327 328 325 324 321 324 322 326 327 328 329 328 327 325 323 321 320 317 315 313 308 306
306 303 302 302 299 291 297 296 295 299 301 305 311 314 314 316 317 318 320 323 324 326 327 326 326 326 328 328 327 326 324 324 323 325 325 326 326 327 326 326 323 322 320 319 317 313 310 305 305
303 299 292 290 290 290 299 295 298 303 305 307 310 312 315 316 316 318 318 318 322 324 325 327 327 326 327 329 328 327 327 328 326 325 324 322 322 321 322 323 321 319 318 314 312 309 307 304 302
300 299 294 286 286 291 299 293 297 306 308 309 309 311 315 316 317 318 319 320 319 322 326 327 327 326 327 328 329 328 328 328 327 326 325 322 321 322 320 320 318 315 312 310 308 306 305 302 301
300 296 303 295 296 292 295 298 304 306 305 306 308 310 312 313 317 318 319 322 322 322 323 326 326 326 326 328 329 327 325 327 327 326 325 323 322 321 319 318 311 310 308 306 305 303 300 300 301
302 305 295 297 288 286 292 293 294 300 302 304 305 309 312 315 316 317 319 321 322 324 325 326 326 326 327 328 330 328 323 324 328 328 325 324 322 320 316 311 309 307 306 306 303 301 300 301 301
299 298 300 300 296 290 288 292 302 303 305 305 308 308 313 315 316 317 318 321 322 324 325 327 328 328 328 330 330 328 327 326 327 325 323 324 320 314 310 309 308 306 305 304 302 300 299 299 298
303 300 301 294 292 297 296 293 307 306 307 308 308 310 312 314 315 318 320 321 321 322 326 330 331 331 330 329 329 329 328 327 323 322 321 319 313 311 309 309 307 305 304 303 300 297 297 300 298

GFSSGP_sfc_thetae_051.txt.gz
Theta_e
318 316 317 309 295 289 286 291 298 296 300 312 315 311 309 309 308 308 327 331 332 333 341 343 346 349 349 349 348 347 347 346 345 345 345 346 347 347 347 344 342 342 342 338 335 336 336 336 336
316 318 312 302 288 283 288 296 296 304 310 314 314 313 310 310 320 325 324 329 330 331 331 339 344 347 348 348 347 347 346 345 344 344 346 346 346 347 347 342 341 342 342 337 334 335 336 336 336
317 316 299 293 288 287 289 296 299 308 310 311 310 314 319 312 318 327 337 327 333 337 339 343 344 345 347 347 346 345 344 343 343 344 345 346 346 346 346 342 341 342 341 336 334 335 335 335 335
311 304 301 291 289 294 293 300 304 304 305 312 310 317 324 323 322 322 338 329 337 339 342 342 342 344 346 346 345 344 342 341 342 343 344 346 346 346 345 343 341 342 340 335 334 333 333 334 333
309 300 290 289 292 298 303 304 307 308 307 312 311 307 316 322 327 337 337 338 338 339 340 341 340 342 343 343 344 342 341 341 342 342 344 345 346 345 344 343 341 340 339 335 333 332 333 333 331
298 298 289 289 293 302 303 304 305 305 312 310 310 310 309 319 328 331 336 335 339 337 338 339 342 337 339 341 341 340 341 341 341 342 344 345 345 344 344 343 340 339 338 337 335 334 333 331 330
296 292 289 291 293 297 302 307 305 305 310 308 315 310 311 316 327 332 336 336 337 338 337 338 339 339 337 337 338 339 340 340 340 340 340 341 341 342 343 341 339 338 337 336 335 333 331 329 328
299 294 290 292 294 295 302 306 309 309 307 319 317 309 313 320 328 331 334 334 333 334 335 334 335 335 335 334 336 338 338 338 338 337 336 336 338 340 339 338 337 337 336 335 334 332 330 327 325
301 290 289 293 297 299 306 307 312 314 310 314 313 314 321 326 326 327 326 326 326 327 329 328 328 329 330 333 337 337 338 336 335 335 333 330 331 333 332 334 335 335 334 333 332 330 328 326 323
295 289 293 301 300 299 302 300 310 309 308 310 310 317 325 325 322 321 322 322 322 323 325 325 326 326 327 332 334 334 333 330 328 326 322 323 324 328 331 332 333 332 331 331 330 328 326 323 313
297 292 299 301 301 302 299 306 313 309 307 310 311 315 322 321 319 317 317 320 318 321 324 323 322 322 325 327 326 330 329 328 326 324 324 324 326 326 326 326 327 326 327 322 323 322 317 316 315
296 301 301 301 304 303 305 309 308 313 313 319 320 321 321 318 317 316 315 316 316 316 319 319 320 321 321 319 318 323 325 325 323 325 326 324 324 323 322 322 322 321 319 315 315 315 317 316 314
298 300 304 304 306 306 309 306 308 306 316 319 321 321 318 316 316 316 315 315 316 314 317 318 320 319 320 320 321 322 325 322 323 325 327 325 324 322 322 322 321 320 318 314 316 317 317 315 313
303 301 301 303 304 308 305 306 308 309 316 317 318 317 317 314 314 313 312 312 313 316 316 318 318 318 318 318 316 317 322 320 321 322 326 326 324 325 322 323 323 320 321 319 319 317 315 314 312
304 299 300 300 304 304 308 303 304 312 312 316 315 316 316 314 314 312 312 311 313 315 316 316 316 317 316 318 318 319 321 323 321 321 324 326 327 324 324 325 325 326 322 321 318 317 315 313 313
299 298 291 299 305 307 306 298 306 310 308 312 313 314 314 314 314 314 313 312 313 315 315 316 317 316 316 317 318 319 319 322 322 322 324 325 327 327 324 323 323 323 322 320 318 316 314 312 309
295 290 292 296 306 305 304 299 306 311 312 312 313 313 311 314 314 311 312 312 313 315 315 315 316 316 316 317 317 317 319 319 320 321 323 325 326 328 323 325 323 322 320 319 318 316 314 311 307
290 292 293 295 300 304 300 300 304 309 311 308 310 312 312 313 312 311 312 311 313 314 314 315 315 315 316 317 316 316 316 315 319 320 321 326 325 326 326 325 323 322 319 318 317 315 313 310 307
297 295 292 296 302 300 299 301 301 306 308 306 309 311 311 310 314 314 313 312 311 312 311 312 312 313 314 314 313 312 312 316 316 319 320 323 326 327 326 324 323 322 319 317 317 314 311 306 304
299 294 292 301 304 300 298 299 302 306 307 307 309 308 309 311 312 313 313 312 312 312 312 311 312 312 312 317 312 311 315 317 320 320 319 323 327 327 326 324 322 320 319 318 316 312 307 306 303
296 294 293 296 299 299 295 295 300 305 310 311 311 311 312 312 311 312 312 312 311 311 311 311 311 312 314 319 317 315 318 317 314 316 318 322 328 326 326 324 323 320 319 317 313 311 308 305 304
291 298 300 299 294 287 294 284 298 304 305 309 309 309 310 313 313 313 313 312 312 311 314 314 312 312 316 320 318 316 317 316 316 314 317 325 326 325 326 325 323 320 320 317 314 314 311 309 304
295 302 301 299 294 291 292 288 292 303 301 303 307 309 309 314 313 313 312 313 314 314 314 316 316 315 318 320 320 320 320 319 316 316 317 324 324 324 324 324 323 321 322 319 316 314 312 310 307
303 301 299 297 293 285 292 291 291 296 299 304 307 309 310 311 315 315 315 315 316 317 316 317 317 318 319 320 321 323 323 321 317 316 318 323 323 324 326 326 323 322 319 318 315 312 311 307 306
298 293 286 285 283 283 296 293 292 299 302 305 306 308 310 312 313 315 316 316 317 317 318 319 320 319 320 320 320 324 323 322 320 319 320 319 320 319 321 322 320 319 318 316 313 309 306 306 305
296 294 286 281 281 287 296 290 293 302 304 304 306 310 311 312 314 316 317 318 319 319 320 320 320 320 321 321 322 324 324 323 323 321 319 320 321 320 320 320 318 316 315 311 309 307 305 305 303
296 292 298 293 293 287 291 295 300 302 300 301 302 303 308 310 312 314 317 318 319 320 320 321 321 321 322 323 324 323 323 323 323 321 321 320 317 316 316 318 315 314 310 308 307 305 304 303 300
298 300 290 293 284 283 289 290 291 296 299 299 298 300 304 306 311 314 315 316 318 320 322 322 323 323 324 323 325 325 324 321 322 322 319 319 319 316 315 315 312 310 307 306 304 303 301 300 300
295 294 296 295 291 283 281 287 298 298 302 300 299 302 304 306 307 309 313 316 317 317 320 323 323 323 324 323 324 325 322 320 322 322 321 320 317 314 313 310 309 307 305 304 302 301 300 300 299
299 296 296 288 288 290 284 287 302 300 302 302 302 303 303 307 309 310 311 312 314 318 320 321 323 324 324 324 324 324 323 322 321 320 320 319 316 312 310 309 308 305 304 303 301 299 299 299 298

GFSSGP_sfc_thetae_054.txt.gz
Theta_e
317 315 314 307 293 288 284 289 294 294 295 308 313 309 306 311 312 306 329 331 332 337 343 344 344 348 348 348 348 347 346 346 346 346 348 348 346 344 343 343 342 340 341 339 339 338 338 338 338
313 315 309 300 287 282 284 292 292 298 302 312 313 312 311 309 317 321 323 331 331 333 342 342 344 346 347 347 347 346 346 346 345 347 347 348 345 344 343 342 340 339 340 339 338 338 336 334 336
313 312 299 292 285 283 285 292 297 303 311 310 309 322 316 313 319 321 329 331 329 332 337 343 343 343 344 347 346 345 344 344 345 346 347 348 345 344 343 341 340 339 339 338 338 336 334 334 335
308 302 298 289 287 291 292 297 301 307 310 313 310 312 322 324 324 327 331 331 329 333 336 334 339 343 344 346 345 343 342 342 344 344 346 347 344 344 342 340 339 339 338 336 335 334 332 333 334
307 297 289 286 289 293 298 303 304 309 310 310 311 306 314 322 330 334 337 338 336 337 338 339 340 341 343 343 343 342 341 342 343 343 344 345 344 343 341 340 339 338 337 334 332 332 333 332 334
298 295 287 285 290 296 299 306 308 309 309 309 308 308 308 320 326 329 336 337 339 338 339 338 340 340 340 340 336 339 341 341 342 343 343 344 344 341 341 339 338 338 337 335 334 333 332 332 332
295 291 287 287 291 293 300 305 306 308 308 309 314 310 312 314 324 330 335 335 335 336 336 333 336 339 337 336 334 335 339 341 342 342 342 342 342 340 340 339 338 337 336 334 333 331 331 331 330
297 293 287 289 289 293 300 305 309 308 309 318 316 309 313 320 326 331 331 331 333 334 335 334 334 335 332 332 332 333 338 338 339 340 340 339 340 339 338 337 337 336 334 333 332 330 329 329 328
298 289 286 289 294 297 305 307 310 313 312 313 314 315 319 324 327 327 326 325 327 329 332 332 330 329 329 329 329 332 338 337 337 338 337 335 336 335 332 334 334 334 333 331 330 329 327 323 325
294 287 291 296 297 300 308 305 308 309 309 309 310 317 323 322 324 323 322 320 323 323 325 328 328 326 324 325 330 333 334 331 330 328 329 328 329 330 331 332 332 331 330 330 328 327 325 319 312
293 291 298 298 301 303 305 306 312 306 303 311 312 314 322 319 319 319 321 322 322 323 323 325 326 326 324 323 325 332 329 326 323 323 324 328 329 327 327 327 326 326 326 322 321 317 314 315 312
292 298 299 299 302 305 305 308 309 310 313 320 320 321 320 318 318 317 318 318 320 321 321 322 324 324 324 328 330 328 326 323 322 323 323 324 323 322 323 323 323 321 319 317 315 313 315 313 312
297 299 302 302 307 305 308 306 307 310 316 319 320 319 318 317 316 316 316 318 317 318 318 319 320 321 320 319 324 326 324 323 324 324 323 322 319 319 320 320 319 317 317 312 313 315 315 311 311
301 301 300 300 305 306 304 305 306 308 317 316 317 315 315 314 314 314 314 314 315 317 317 319 319 318 320 317 319 323 323 322 324 324 323 321 319 319 319 318 317 316 316 314 315 315 313 311 309
302 296 298 298 302 303 304 299 302 311 316 314 313 314 314 314 315 313 313 313 316 317 317 317 316 319 318 317 318 320 321 321 322 322 324 323 322 321 320 321 321 319 318 317 317 315 314 311 310
297 295 290 296 304 304 301 295 302 311 313 311 312 312 312 312 314 314 313 314 315 315 315 317 319 317 317 316 316 318 319 321 320 320 323 324 325 323 323 323 323 323 321 318 316 315 313 311 309
292 288 291 294 301 304 301 297 303 307 309 311 310 310 310 311 312 313 313 313 315 314 314 314 316 315 316 316 316 317 317 319 320 319 322 323 324 326 323 323 322 322 320 318 317 314 313 310 307
288 289 288 289 300 301 300 298 300 309 311 310 309 308 309 309 309 310 313 313 315 314 314 314 315 315 316 316 316 316 316 316 318 319 318 322 323 323 323 323 322 321 318 316 315 314 313 311 308
294 293 291 295 300 301 299 298 300 304 306 308 309 307 308 310 311 310 311 312 314 314 314 313 314 315 316 314 313 313 312 313 314 317 318 318 322 322 322 323 321 320 319 317 316 314 311 307 305
295 293 293 296 301 299 297 297 299 302 305 305 308 309 309 310 310 310 310 310 312 311 312 313 312 313 315 315 314 312 312 311 315 316 317 318 321 323 323 322 321 320 318 316 315 312 307 307 302
295 294 292 293 298 296 297 294 299 304 306 309 311 311 311 310 309 310 310 308 311 310 310 312 312 312 313 315 313 309 309 314 314 315 315 317 320 322 323 323 321 319 318 316 314 311 309 307 305
292 298 296 296 292 287 292 284 294 300 301 306 309 308 308 310 311 311 310 309 309 310 311 312 312 311 312 314 314 309 309 309 313 315 316 317 320 323 324 324 321 319 319 317 315 313 310 311 306
295 300 297 297 292 289 290 286 290 300 299 303 307 308 308 311 311 310 311 310 311 312 311 311 311 312 312 312 317 312 310 312 316 315 313 316 320 323 324 323 321 320 320 320 317 315 311 311 307
302 298 296 294 291 284 290 288 288 296 300 304 306 309 310 311 312 312 312 312 312 311 310 310 309 311 312 312 315 315 312 313 315 314 312 314 320 321 323 324 322 320 320 320 319 316 314 310 307
297 291 284 283 282 282 293 290 291 299 304 306 306 307 309 312 312 312 311 311 312 310 310 312 310 309 311 311 314 315 315 315 317 318 314 314 319 318 321 323 321 320 319 319 318 313 311 307 305
294 293 285 280 280 285 294 288 292 300 302 308 309 309 310 310 313 312 312 312 312 312 312 312 313 311 311 312 314 316 316 318 321 321 317 316 319 320 319 320 318 318 317 315 313 310 307 306 305
294 291 296 290 290 285 289 293 298 299 299 301 305 307 307 309 311 314 314 313 313 314 314 314 314 314 314 315 316 317 318 319 322 322 319 319 318 318 318 318 316 314 314 311 308 306 305 305 304
297 299 289 290 283 280 287 290 290 295 296 297 298 304 306 309 311 313 315 315 316 316 316 317 317 316 318 319 319 319 319 321 322 320 319 319 318 316 315 315 314 312 310 307 306 304 304 302 301
294 292 294 293 290 282 280 286 296 296 299 297 296 301 303 308 310 312 315 317 318 319 318 318 319 319 320 321 320 320 321 322 320 321 320 320 319 317 315 315 311 308 305 304 304 303 302 301 300
295 294 294 288 287 288 283 287 298 298 300 301 301 301 303 306 309 312 313 316 317 318 319 320 320 320 321 322 322 322 323 322 322 320 320 321 318 316 315 312 309 307 305 303 302 301 301 300 298

GFSSGP_sfc_thetae_060.txt.gz
Theta_e
314 315 309 301 290 287 284 287 290 291 291 297 306 305 303 306 307 299 326 332 342 341 343 345 345 346 347 347 347 347 348 348 348 347 346 346 345 343 343 343 343 343 343 340 339 339 338 337 336
309 312 303 294 286 281 284 288 290 293 298 307 310 311 309 308 316 321 325 331 342 342 341 341 344 345 346 346 346 347 348 348 347 346 345 345 344 343 344 343 342 343 343 341 340 340 339 337 336
308 306 297 288 282 282 284 290 293 295 301 307 308 317 315 309 317 323 327 333 334 336 336 339 342 342 343 344 345 346 347 346 345 345 345 344 343 344 343 342 341 342 342 340 340 340 338 335 335
305 300 294 289 285 288 290 294 295 297 306 309 308 309 319 322 322 323 331 333 329 329 335 335 336 339 340 340 344 345 345 344 343 344 344 344 343 343 342 341 341 342 341 338 338 339 336 334 333
301 295 288 284 285 290 292 294 296 303 307 307 307 304 312 319 324 331 331 332 330 328 332 337 334 339 340 341 343 343 344 343 342 343 343 342 341 342 341 340 339 338 337 336 338 335 335 333 332
295 293 285 283 286 292 294 295 302 306 306 306 305 304 306 318 319 324 329 329 327 327 331 335 336 339 339 340 339 339 340 340 341 341 341 341 339 339 340 339 337 335 336 337 338 335 334 332 331
293 289 285 284 288 290 293 301 304 304 304 305 311 307 310 312 320 327 329 333 331 329 331 335 335 337 336 335 333 334 336 339 340 340 340 339 338 337 338 337 335 335 336 337 336 334 332 332 330
294 291 286 286 287 288 295 302 306 305 305 316 313 305 308 318 323 331 330 332 333 331 332 332 332 329 328 329 331 330 330 337 339 339 339 338 337 336 335 333 333 333 333 335 335 333 331 330 329
294 288 285 287 288 292 300 301 306 310 308 311 312 313 318 321 326 324 324 327 329 329 329 331 329 327 326 325 327 328 330 334 336 338 337 334 332 329 325 329 331 331 331 331 332 332 331 329 328
292 286 289 293 293 293 296 301 303 305 306 307 308 315 321 318 324 320 318 320 325 325 329 329 329 325 325 324 323 321 326 326 331 336 333 331 327 324 326 329 330 328 328 328 331 331 329 324 319
291 289 292 295 296 295 294 302 308 304 301 306 307 309 317 317 316 320 320 321 322 325 325 325 325 325 324 323 324 326 326 327 330 334 332 328 327 327 324 323 323 321 323 317 318 317 315 315 313
289 294 294 296 296 298 300 303 304 303 305 313 314 314 317 315 317 319 319 320 321 324 323 324 325 324 323 322 322 326 325 326 326 329 329 327 325 322 319 320 317 315 313 312 314 312 311 311 312
291 295 297 299 299 300 305 303 304 308 314 316 317 316 314 315 315 316 319 320 321 321 322 322 322 319 319 319 321 325 325 325 327 328 328 325 322 319 319 319 317 314 312 312 312 310 309 308 308
297 297 297 297 300 302 302 300 302 305 314 314 315 312 313 314 314 315 316 317 319 321 321 322 320 320 320 317 322 323 323 322 325 327 326 323 321 319 318 317 314 312 311 312 313 310 309 307 305
298 293 295 295 297 300 302 297 298 305 313 312 311 310 312 313 315 314 315 316 318 320 321 320 322 321 320 319 323 321 322 323 323 324 321 319 319 318 317 317 315 314 311 313 314 311 309 306 304
293 291 287 293 299 299 300 292 296 308 310 308 309 311 311 311 312 313 314 316 318 318 319 320 321 321 321 322 321 320 321 322 322 321 320 319 319 318 316 316 316 315 313 313 313 311 309 307 305
289 284 286 291 297 298 297 294 298 307 310 307 307 308 310 307 309 311 313 316 318 318 318 318 318 319 320 321 319 319 319 320 321 321 319 319 319 319 317 317 317 316 315 313 314 312 311 308 308
285 285 285 287 292 295 294 296 297 307 308 307 306 306 308 305 307 311 312 315 316 317 318 317 316 316 317 318 317 316 317 318 320 320 320 321 320 320 318 319 319 318 317 315 314 313 311 310 308
289 288 286 289 293 293 292 293 297 300 304 302 304 307 306 305 307 310 312 314 314 315 315 315 314 315 315 316 315 315 314 314 316 318 321 322 322 322 321 321 320 320 318 317 316 313 311 309 307
291 288 288 292 295 294 291 293 295 299 301 304 305 305 305 305 308 310 310 312 312 312 314 314 314 315 315 318 318 315 314 313 315 316 317 320 321 321 321 321 320 319 318 316 314 312 310 309 305
290 288 288 290 293 292 292 291 293 299 300 306 308 308 307 306 306 308 308 310 311 311 312 314 314 314 315 315 314 311 311 313 312 313 314 316 317 318 320 319 320 318 318 315 313 312 310 308 305
287 294 293 291 288 284 290 282 288 292 298 302 304 307 307 306 308 308 307 307 311 312 313 313 314 314 314 314 314 311 312 311 311 312 314 315 317 316 318 318 317 317 316 315 314 314 311 309 306
291 295 293 292 288 286 287 283 287 296 295 298 301 304 307 308 308 307 307 308 310 312 312 312 311 313 314 312 312 310 306 309 309 313 313 314 315 315 316 317 317 317 317 316 314 312 310 309 307
298 294 292 291 288 281 287 285 285 289 295 297 300 304 307 308 308 309 309 307 307 308 310 311 309 310 312 312 312 311 309 307 306 307 309 311 312 313 315 316 316 316 316 316 316 314 314 313 312
293 289 282 281 281 281 289 286 289 294 296 299 300 302 306 309 308 308 307 306 306 306 307 308 310 309 309 310 311 312 309 308 307 306 307 308 309 310 312 314 315 315 317 318 318 317 316 315 313
291 291 283 279 279 282 289 286 291 297 299 300 301 302 305 306 308 308 309 308 307 307 308 308 308 309 310 309 308 310 312 311 309 308 308 309 310 310 312 313 315 316 316 318 319 318 317 315 313
290 287 293 285 285 283 285 290 295 297 297 296 300 302 303 306 307 309 309 309 308 308 308 308 308 309 309 309 309 308 309 312 312 310 308 310 311 312 312 314 315 315 315 315 316 315 313 311 309
294 295 287 286 281 279 283 285 287 293 295 296 297 301 303 305 307 309 310 309 310 309 309 309 309 308 309 309 310 309 309 310 312 312 311 311 313 313 313 313 314 314 314 313 312 310 307 308 304
290 288 290 290 286 281 280 283 293 294 297 297 296 298 302 303 306 309 310 311 311 311 310 309 309 309 308 309 309 310 310 310 310 311 312 313 314 317 317 317 317 316 314 314 313 310 306 306 304
291 290 292 285 283 284 282 286 294 296 297 297 297 297 296 302 305 308 310 311 311 310 310 309 309 309 310 310 309 310 311 311 310 310 312 313 315 318 318 318 318 318 315 310 309 307 307 306 303

GFSSGP_sfc_thetae_063.txt.gz
Theta_e
321 319 316 310 299 297 294 295 297 297 298 302 312 308 308 312 310 306 332 337 344 343 345 346 345 347 348 349 349 349 349 349 348 348 347 347 346 345 344 343 343 343 343 339 339 339 339 338 337
315 315 311 303 296 293 294 296 295 299 302 311 313 315 312 311 320 325 329 335 344 344 345 345 345 346 347 348 348 348 349 349 348 347 347 346 345 345 344 343 342 342 342 339 338 337 337 337 336
313 309 306 299 294 293 293 296 299 300 303 307 310 321 316 314 319 329 332 336 342 344 345 345 344 345 346 347 347 347 347 346 346 346 346 345 345 345 344 342 342 342 343 340 338 336 336 335 335
311 308 302 298 294 296 296 301 300 301 308 312 313 314 323 325 322 327 333 336 335 339 342 341 340 342 345 346 347 346 345 344 344 344 344 345 345 345 343 342 342 343 342 342 338 336 335 335 333
308 304 298 295 294 296 298 300 300 301 309 310 311 309 316 324 326 331 334 334 333 335 340 341 335 340 343 346 347 345 344 343 343 343 342 343 344 343 342 341 341 341 341 341 337 333 333 333 332
303 302 296 293 293 297 300 301 302 306 310 310 310 309 311 322 322 328 332 335 333 335 340 339 335 339 340 342 342 343 342 342 342 341 341 342 342 341 340 340 338 338 340 339 336 334 333 332 331
302 299 294 293 294 296 299 305 307 308 309 309 314 309 315 315 324 330 333 335 333 335 334 340 338 339 338 338 337 339 340 341 340 340 339 339 338 338 339 337 337 338 339 337 335 333 332 331 330
302 300 293 294 294 295 300 305 310 309 308 317 317 309 311 322 327 332 333 335 337 332 334 339 337 339 338 337 333 336 337 338 339 338 337 336 336 337 337 335 337 338 338 336 333 332 331 331 329
301 297 293 295 294 298 301 303 309 314 312 314 316 315 319 324 327 327 327 330 330 332 334 336 333 335 336 334 334 335 334 336 337 337 336 334 338 335 331 331 335 337 335 333 332 332 330 329 328
300 296 296 299 299 299 301 301 303 308 309 311 312 316 322 323 325 323 321 322 325 325 329 330 329 329 329 327 327 329 331 331 333 336 336 334 333 330 327 331 331 332 333 332 331 331 329 326 324
298 296 298 299 301 301 299 304 309 308 306 310 310 313 318 320 320 322 322 322 324 326 327 329 324 324 324 322 322 326 329 330 331 334 333 332 328 330 330 328 328 330 331 330 329 327 325 324 323
296 299 299 300 300 301 299 307 308 309 310 316 317 317 318 316 318 319 321 322 323 324 324 324 324 323 323 322 321 322 324 326 328 330 334 330 326 327 326 324 324 324 325 328 328 324 325 324 323
296 299 299 301 301 302 307 306 307 309 315 320 319 318 317 316 317 318 320 322 323 323 324 324 325 324 323 322 323 324 324 326 326 329 332 327 324 324 325 323 322 321 322 323 322 323 322 322 322
301 299 301 302 302 304 304 304 306 309 318 317 316 315 315 316 316 317 319 319 321 322 322 323 323 322 323 322 324 326 326 326 326 330 332 329 325 325 324 322 321 321 321 321 321 321 321 320 321
301 298 300 301 301 302 306 302 303 310 317 313 312 313 314 315 316 316 319 319 320 321 321 320 320 320 319 323 324 325 325 325 325 330 331 327 325 326 325 323 321 321 321 320 319 318 317 315 315
298 297 293 297 302 303 304 296 302 310 314 311 312 312 313 314 315 316 317 319 322 321 320 321 321 319 319 323 322 324 324 326 325 326 328 326 326 325 324 322 322 322 323 322 319 317 315 313 311
294 291 291 294 300 302 302 298 303 312 313 312 313 312 312 312 313 314 315 318 320 320 320 320 320 320 320 321 322 322 324 325 325 323 324 325 325 325 324 322 322 323 322 322 320 318 317 314 311
290 291 291 292 298 299 299 300 304 309 312 311 313 313 310 310 311 312 313 316 318 319 319 319 321 320 321 320 322 321 320 324 325 324 322 324 323 323 323 323 323 323 321 322 322 320 319 316 315
294 292 291 294 297 296 297 297 300 303 309 310 312 312 310 309 312 313 314 316 316 317 317 318 317 319 320 318 317 317 318 323 324 324 322 324 323 323 325 325 324 324 323 322 321 321 319 317 316
294 293 292 295 297 297 298 297 302 303 305 309 311 311 311 310 310 312 312 315 314 316 317 317 316 317 319 320 320 319 321 321 322 323 323 323 323 324 325 325 325 324 324 322 322 321 320 320 316
293 292 292 292 295 297 296 296 298 302 305 307 310 311 312 311 308 310 310 312 314 314 316 316 316 316 317 319 316 315 315 316 318 320 321 323 325 325 326 326 325 325 326 323 323 322 320 319 316
290 295 295 293 292 290 296 288 295 299 300 304 307 311 313 312 313 311 311 311 312 315 318 318 316 316 316 317 316 316 316 314 318 318 322 321 323 324 324 324 324 325 326 324 323 323 323 322 318
293 297 295 294 292 291 292 290 294 297 299 302 306 309 313 314 313 312 311 312 313 315 316 317 316 317 316 316 316 313 315 317 315 315 318 319 320 321 322 321 323 324 325 326 326 324 322 322 321
298 296 295 294 293 286 292 291 293 295 299 301 305 307 310 313 313 314 314 313 312 314 316 317 316 317 316 315 316 315 314 313 313 312 314 316 320 320 321 321 323 325 325 325 325 326 324 322 321
297 294 287 285 285 286 292 289 294 299 302 302 304 306 309 313 313 313 311 310 310 311 315 315 315 315 316 315 315 315 316 315 315 313 315 317 318 319 320 322 322 323 325 325 326 325 324 323 321
294 293 288 282 283 287 291 289 294 302 304 305 305 306 308 312 314 314 313 312 311 310 314 314 313 314 315 316 316 317 317 316 316 315 316 317 319 320 321 321 322 323 324 325 326 325 325 324 316
293 290 297 289 289 288 290 294 299 302 302 302 303 306 308 311 313 314 314 314 313 312 312 313 313 313 315 315 316 316 317 317 317 317 318 317 318 318 319 321 321 323 324 325 325 325 324 322 319
297 298 290 290 283 282 287 289 291 298 300 302 304 304 308 310 312 314 314 315 314 314 314 314 315 314 315 315 316 315 316 318 318 319 317 318 319 318 319 320 321 322 323 324 324 323 322 320 320
293 292 293 294 290 286 284 288 299 300 302 302 304 305 304 309 312 313 315 316 316 315 314 314 314 314 315 316 316 316 316 316 317 318 318 319 319 319 319 320 320 320 320 321 321 319 318 316 317
296 294 295 289 287 289 288 290 299 302 302 302 304 304 305 304 310 313 315 315 315 315 314 314 314 314 315 316 316 316 316 316 315 315 316 319 319 319 319 320 319 317 318 319 316 316 314 311 310

GFSSGP_sfc_thetae_066.txt.gz
Theta_e
321 324 324 317 304 303 300 300 304 303 304 309 313 313 311 314 309 307 337 343 345 345 347 347 347 350 351 350 349 350 350 350 349 349 349 349 349 348 347 346 345 345 346 342 340 339 341 340 339
322 322 320 313 301 297 300 303 302 305 307 309 315 317 315 313 323 328 335 343 346 346 346 345 346 348 350 350 350 349 350 349 348 348 348 348 348 347 346 344 343 343 344 341 340 338 338 338 337
321 320 311 307 303 298 300 303 305 307 308 307 313 320 318 315 324 333 338 342 347 345 346 346 345 344 348 348 348 348 348 347 347 347 348 347 346 345 344 342 341 342 342 339 338 339 337 336 336
315 314 312 302 299 302 302 306 307 307 311 313 315 313 325 331 327 335 338 343 340 345 344 343 342 343 345 348 348 348 346 345 345 345 346 346 346 345 343 341 341 342 341 337 337 337 336 336 335
318 313 302 300 300 303 306 307 307 306 309 313 315 311 315 329 332 335 338 341 338 345 344 347 340 340 339 343 346 347 345 344 344 344 344 345 345 344 342 341 341 341 340 337 336 335 334 334 333
309 310 299 297 300 303 306 308 307 308 310 312 313 313 315 326 329 331 336 340 343 340 345 345 339 337 337 340 344 344 343 343 343 342 343 344 343 342 342 341 341 341 339 336 336 334 333 332 331
307 303 299 299 300 301 304 309 308 308 308 310 316 311 318 321 328 333 334 339 342 338 342 342 341 340 338 337 339 340 341 341 340 341 341 341 340 340 340 340 340 340 337 335 335 334 333 331 330
309 305 300 300 299 301 305 307 310 310 309 320 319 310 313 326 329 334 335 336 339 338 337 341 343 340 342 344 336 337 339 338 339 340 339 338 338 337 337 337 339 339 337 335 334 333 332 330 329
310 301 298 299 300 302 307 305 310 314 312 316 319 319 322 325 328 329 330 332 334 338 339 342 340 340 338 340 339 338 338 337 337 338 336 335 338 336 335 335 337 336 334 333 333 332 331 329 329
305 300 301 304 305 304 306 307 308 308 310 313 317 322 323 325 326 326 325 327 329 329 333 339 338 339 338 336 338 338 335 335 336 335 335 336 337 336 331 335 335 334 332 332 331 330 329 326 325
304 300 304 304 307 306 306 307 310 309 306 311 313 318 321 323 324 324 325 324 326 329 333 335 335 332 333 336 330 332 332 333 332 334 334 336 336 332 332 336 336 334 330 328 328 327 326 325 324
300 304 305 305 306 306 305 309 308 311 312 318 317 320 322 321 322 322 323 323 326 328 327 328 330 326 326 326 328 327 326 328 329 329 332 332 330 331 331 332 332 331 330 329 328 327 328 327 325
302 303 306 306 306 306 308 307 308 310 315 320 321 321 321 321 321 323 325 326 327 326 325 327 324 323 323 324 326 325 325 326 327 327 329 333 329 329 328 331 332 331 332 331 329 328 327 325 325
304 304 304 305 306 307 305 306 308 310 315 319 320 320 320 319 320 321 323 322 325 326 325 324 324 324 323 322 325 324 325 325 327 327 328 331 329 328 326 327 326 328 330 330 328 327 325 324 324
304 301 303 305 306 305 307 303 305 311 317 317 318 319 320 319 320 320 321 320 323 325 324 324 324 323 322 322 323 324 326 326 326 326 329 332 330 329 328 325 325 326 328 328 327 326 325 323 322
301 302 297 303 304 305 306 298 305 313 316 315 317 319 319 320 319 321 319 321 323 323 320 323 322 322 323 322 323 325 324 324 325 326 327 329 328 328 327 325 325 327 326 325 324 324 323 322 321
300 295 297 299 304 304 306 300 309 314 314 313 317 319 319 319 319 319 319 319 322 326 323 322 321 319 322 323 326 326 325 324 326 327 327 326 327 328 325 324 325 328 325 324 323 323 323 320 319
295 296 298 297 301 303 302 303 307 310 312 314 316 318 319 319 318 318 318 318 321 321 323 322 322 319 323 325 324 325 324 324 325 325 326 327 325 326 325 324 325 326 326 326 324 324 324 322 320
299 297 297 299 301 299 299 301 305 308 310 313 315 317 318 318 321 319 319 317 319 319 319 321 319 319 323 322 320 320 321 323 322 322 324 327 325 326 328 325 325 326 325 327 327 326 324 322 323
298 296 297 299 301 300 299 301 306 308 308 311 314 316 318 318 319 317 318 318 318 319 320 319 320 322 321 322 321 323 324 323 323 322 323 325 327 324 324 326 324 326 325 326 327 326 323 324 323
297 296 297 296 299 301 300 299 302 306 309 311 314 316 318 318 318 317 316 317 317 318 319 319 319 320 323 322 322 319 320 320 322 322 322 323 325 322 323 326 326 327 327 325 326 326 325 322 324
294 300 298 297 295 291 301 292 300 303 304 307 310 315 316 318 319 319 318 317 320 317 320 322 320 319 320 321 319 319 315 313 323 323 323 321 325 323 323 327 328 328 328 326 327 327 326 326 322
296 300 299 298 296 295 295 294 298 302 301 304 308 312 317 319 320 320 319 318 319 321 319 322 321 319 319 319 318 317 315 316 321 321 323 320 323 325 325 327 328 327 329 328 330 327 328 327 327
301 298 298 298 296 289 295 295 296 300 301 304 307 310 314 319 320 321 321 320 320 321 322 321 322 320 319 318 319 317 320 320 320 318 320 319 320 323 323 324 326 327 327 327 327 329 330 328 328
299 296 289 288 289 287 297 295 298 303 305 307 308 310 314 318 320 321 320 319 319 319 320 319 320 320 320 318 319 318 319 318 316 318 317 318 318 319 320 324 325 325 324 326 325 328 328 328 327
296 296 291 284 287 290 297 291 298 305 307 309 310 311 312 316 320 321 321 321 319 319 320 321 320 320 320 321 320 321 319 318 320 318 318 317 319 321 321 323 324 324 326 326 327 328 327 329 328
296 294 300 293 295 292 295 297 302 305 306 307 309 310 312 315 318 320 322 322 321 319 320 321 321 321 321 322 322 320 321 321 322 323 322 321 320 321 323 325 322 323 325 326 326 327 326 327 329
300 301 292 294 286 285 291 293 294 300 302 304 308 310 312 316 318 320 321 322 322 321 320 322 321 320 322 322 323 323 323 323 323 324 323 323 324 324 325 325 324 324 324 324 325 326 326 326 328
296 295 297 297 294 289 287 293 302 303 304 305 308 310 311 315 318 319 321 323 323 323 321 320 320 320 321 322 322 322 323 325 325 324 324 324 324 324 323 323 323 323 323 324 325 324 324 324 325
300 297 297 292 291 294 294 294 303 305 307 307 308 309 312 311 315 320 321 322 323 322 321 320 320 320 321 322 322 322 323 323 323 323 324 325 325 325 324 324 322 322 323 324 324 324 323 322 319

GFSSGP_sfc_thetae_069.txt.gz
Theta_e
322 322 323 318 305 305 301 303 307 304 305 311 313 312 311 314 309 307 339 343 345 346 352 349 348 350 351 351 350 350 350 350 350 349 349 349 349 348 348 347 346 347 346 342 343 343 343 343 341
322 322 321 314 302 300 302 306 303 306 308 311 313 314 312 310 319 322 333 344 345 345 348 348 347 349 350 349 349 350 351 350 349 349 350 349 349 348 347 346 345 345 344 341 343 343 341 339 338
323 322 313 307 304 300 302 306 306 308 310 310 310 316 315 314 325 330 340 344 347 346 346 347 346 348 349 349 349 349 349 347 348 348 350 349 349 347 346 344 344 344 343 340 341 340 339 337 338
318 315 312 302 301 306 304 307 308 308 310 312 312 310 320 333 328 336 340 344 346 346 345 342 344 346 347 348 348 348 347 346 346 347 348 348 347 346 344 342 342 343 343 342 338 338 337 336 336
317 313 304 302 303 306 308 309 309 307 309 311 313 310 314 331 335 336 339 342 344 348 347 345 341 343 344 346 344 344 346 345 345 346 346 345 345 344 342 341 341 341 341 340 337 336 335 335 334
309 310 302 300 303 306 308 310 309 308 310 311 311 312 314 331 330 334 338 340 343 347 348 348 342 342 341 340 337 329 342 344 344 344 344 344 343 342 341 340 339 339 338 338 336 335 334 333 333
307 306 302 302 302 304 307 311 308 308 309 309 315 310 317 325 330 334 335 339 341 346 347 346 346 342 337 331 329 327 332 342 342 342 342 342 340 340 341 341 339 337 337 336 335 334 333 332 331
310 307 302 303 301 302 309 308 311 310 309 318 316 309 312 330 332 334 336 337 339 344 344 346 346 342 337 336 330 335 337 339 340 341 340 339 339 340 340 339 337 336 336 335 334 333 332 331 330
313 302 300 302 303 304 309 306 311 313 311 312 317 319 323 328 329 331 331 334 335 340 341 343 343 342 342 340 340 337 337 338 339 340 338 336 339 340 339 337 335 334 334 333 333 332 331 330 329
306 302 302 307 307 306 308 308 309 308 309 310 314 321 325 326 327 326 326 327 330 334 338 340 341 342 342 341 341 340 336 339 339 339 336 335 337 339 337 336 333 332 332 332 332 331 329 326 323
307 301 306 308 308 309 308 308 310 308 306 310 312 316 322 324 325 325 326 327 329 331 333 336 338 342 342 342 343 338 338 336 335 335 336 335 335 333 337 337 332 330 330 327 326 326 324 323 322
302 306 307 307 308 307 306 309 308 309 310 314 317 319 321 324 324 323 324 326 328 329 332 335 337 336 334 339 335 335 336 332 331 330 330 329 329 330 335 334 329 328 328 327 324 324 328 325 323
304 305 307 308 307 308 308 307 307 308 312 315 319 322 322 323 323 323 325 326 326 328 330 328 328 332 331 329 332 334 330 330 329 328 328 327 327 330 333 332 330 328 331 328 326 327 326 325 324
307 306 306 307 307 307 305 306 308 309 313 314 317 321 322 323 322 322 324 324 325 328 328 328 325 325 326 331 326 328 328 327 327 327 327 327 328 330 331 332 332 330 331 329 328 327 325 324 323
307 302 304 306 306 305 307 303 305 310 312 313 316 320 322 323 323 321 324 324 324 328 328 326 323 324 323 324 325 324 325 325 324 325 327 327 328 331 331 332 330 331 330 333 330 327 325 323 323
302 302 297 305 306 307 306 299 306 311 312 313 317 318 321 322 322 323 324 326 325 327 326 327 324 324 323 323 324 324 325 324 323 323 326 327 329 332 332 329 328 331 331 330 327 325 322 322 322
302 296 299 301 307 305 304 301 308 313 312 312 316 318 320 321 323 323 323 325 325 325 325 324 325 324 323 323 325 325 324 324 324 323 324 327 329 330 330 328 328 333 329 329 327 325 324 322 321
296 297 300 300 305 304 302 303 307 311 312 313 314 318 320 320 321 322 322 324 324 326 325 323 323 322 322 325 325 323 323 323 324 324 324 327 327 329 327 327 330 329 325 325 326 326 325 324 322
301 300 299 303 306 303 302 302 306 309 310 311 314 316 319 321 323 323 322 323 323 322 322 321 319 320 321 322 322 319 319 320 321 322 325 326 327 327 328 325 327 328 326 326 328 327 327 323 324
300 298 299 302 304 302 301 301 304 307 309 311 313 315 317 321 321 322 322 321 320 321 321 322 321 321 321 324 323 322 320 321 320 322 323 327 328 326 325 325 326 327 327 329 329 328 325 324 326
300 299 299 299 302 303 301 299 302 307 309 310 312 314 317 320 320 321 321 321 321 320 322 322 322 322 323 324 323 322 322 321 319 320 321 324 327 326 325 328 328 326 328 328 329 330 328 322 326
296 302 301 299 298 294 302 292 301 305 306 308 310 313 314 318 322 322 321 320 322 320 322 323 323 323 322 324 323 321 320 318 318 318 321 321 326 325 326 327 326 327 329 329 329 329 329 325 320
299 303 301 300 298 298 297 294 299 304 302 305 308 311 315 318 322 322 322 321 323 322 320 322 322 322 323 324 324 320 318 322 320 319 319 321 323 325 324 324 325 324 329 329 331 328 328 327 322
303 301 300 300 298 291 296 296 297 301 303 304 308 310 315 318 321 323 323 323 321 324 323 323 321 321 322 323 323 321 320 320 317 320 319 319 321 325 326 323 323 325 326 328 327 325 325 325 327
299 297 290 289 289 288 299 296 299 304 306 306 308 310 314 318 321 322 321 322 320 322 324 323 322 319 320 320 322 324 322 317 317 321 322 319 319 321 325 323 321 321 323 325 326 322 325 326 327
298 297 292 286 287 292 299 293 299 307 308 310 310 312 313 316 321 322 322 322 321 321 323 324 322 320 321 320 320 323 323 322 321 322 324 322 321 319 323 323 322 325 324 326 326 327 324 327 324
296 294 300 294 296 294 296 300 304 307 306 308 308 311 313 316 320 322 323 323 323 322 322 323 322 323 322 321 321 322 325 323 323 323 324 325 324 320 320 322 324 326 326 326 326 325 325 323 324
299 302 292 294 287 286 293 296 297 301 303 306 308 310 313 316 319 321 323 323 324 323 323 324 324 323 323 323 323 322 323 324 324 325 324 324 324 324 323 322 323 323 322 323 324 323 326 325 326
294 295 297 297 295 289 288 294 305 304 305 306 309 310 312 316 318 321 323 325 325 325 323 323 323 323 323 324 324 324 324 324 325 326 326 326 327 326 325 324 324 323 323 324 325 324 325 324 325
299 298 298 293 291 295 295 295 305 307 308 308 308 310 312 313 319 320 323 324 325 325 324 322 323 323 324 325 324 326 327 326 326 326 327 328 327 328 326 327 326 325 325 325 325 324 324 324 324

GFSSGP_sfc_thetae_072.txt.gz
Theta_e
324 318 317 316 303 303 299 302 307 305 305 310 311 310 309 310 306 307 339 343 345 350 348 348 350 352 351 351 350 350 351 351 350 350 349 348 348 348 348 348 348 348 348 346 346 345 345 344 344
319 318 318 311 301 297 299 306 304 306 309 311 310 310 310 308 321 326 334 343 345 348 348 347 348 350 350 350 349 350 351 350 349 350 349 349 349 349 348 347 345 346 347 345 343 344 343 342 342
319 321 310 306 302 297 300 306 306 308 310 309 308 312 313 311 324 327 339 344 346 345 347 348 347 348 350 349 348 348 349 348 348 348 349 349 350 349 347 345 344 345 346 343 343 342 340 339 339
316 314 310 300 298 303 304 307 308 308 309 311 310 308 316 328 325 332 339 343 345 346 346 342 344 347 349 349 348 347 347 346 346 348 348 349 349 348 346 343 343 344 344 342 341 338 338 337 336
314 310 301 299 300 304 308 309 309 307 308 310 311 308 313 330 335 336 338 341 344 347 349 345 342 345 345 348 347 344 345 345 345 347 347 347 346 345 344 342 342 341 342 341 338 336 336 336 334
307 307 298 296 301 306 309 310 309 308 308 309 309 310 315 332 330 336 339 341 346 347 350 348 343 344 341 343 341 338 332 336 344 345 345 345 344 342 342 341 341 340 340 339 337 335 335 334 333
305 303 299 300 301 303 306 312 308 307 307 308 314 309 316 324 332 336 337 341 344 349 349 348 344 338 340 337 333 331 330 329 339 343 343 342 340 340 340 340 339 339 338 337 335 335 334 333 331
308 304 299 301 300 301 308 309 310 308 307 315 314 306 312 327 332 336 340 341 345 344 346 344 345 341 334 332 330 329 328 331 334 340 340 338 338 339 338 337 337 337 336 335 333 334 333 331 329
311 300 298 299 301 303 309 307 310 312 309 311 312 314 320 330 330 331 333 336 337 339 342 343 341 342 338 332 331 331 330 329 332 340 338 336 337 337 335 335 335 335 334 334 333 332 331 329 328
304 300 300 304 305 305 307 307 308 308 308 308 311 319 325 326 326 326 326 328 333 334 339 339 338 339 338 337 331 330 332 328 334 338 337 336 336 336 335 334 333 333 332 332 332 330 328 326 321
305 300 304 305 307 308 306 306 310 307 305 310 310 317 321 324 325 327 325 328 328 333 335 335 336 336 336 334 334 335 330 327 329 335 335 335 335 333 332 330 330 329 330 327 327 325 320 318 319
301 304 305 306 307 307 305 308 306 307 309 313 313 317 319 321 323 323 326 323 327 330 332 335 335 336 335 336 334 334 333 334 333 333 334 333 331 332 330 325 325 323 323 321 320 319 320 318 320
302 303 305 306 307 307 307 305 305 306 310 312 313 320 320 321 323 324 324 326 328 329 330 331 331 333 332 333 334 334 333 332 330 329 328 329 329 328 329 323 322 322 322 321 318 320 320 319 318
305 304 304 306 306 307 304 305 305 307 311 310 311 316 320 321 323 323 323 324 326 328 329 328 326 328 330 328 330 331 330 328 328 327 326 327 327 327 327 324 322 324 322 323 320 323 321 319 319
305 301 303 304 305 304 306 301 302 307 310 309 310 314 319 321 323 322 323 325 327 328 328 324 324 325 326 327 328 329 328 327 325 325 324 325 326 325 326 326 323 324 324 324 323 322 321 319 319
301 301 296 302 304 305 304 297 304 309 309 308 311 314 318 321 322 323 323 325 326 328 326 324 324 323 324 324 326 326 326 325 324 324 325 324 326 326 325 326 326 325 325 325 324 321 320 318 317
299 293 295 298 304 304 304 299 305 310 310 309 311 314 317 319 322 323 324 325 325 326 325 324 323 323 323 324 323 324 324 323 323 324 324 325 325 326 325 326 327 328 326 326 322 321 319 317 317
293 294 296 297 303 304 302 301 305 309 310 310 310 312 316 319 320 323 323 324 324 326 324 324 324 324 323 323 323 322 322 321 321 323 324 323 323 325 326 326 325 327 325 324 322 320 321 319 317
298 297 296 300 305 303 302 301 303 307 308 309 310 312 315 319 322 323 323 324 323 325 322 322 322 322 322 321 320 319 319 320 319 320 323 324 325 325 326 325 326 325 322 322 323 322 320 320 320
297 296 296 301 304 303 301 300 304 305 307 309 310 312 314 319 320 321 321 322 321 321 322 321 320 321 322 323 321 321 321 321 319 320 322 324 324 324 324 323 323 324 323 322 322 321 319 320 320
297 296 297 297 301 303 300 298 301 305 307 308 311 312 314 318 319 320 320 320 320 319 321 319 320 322 322 323 322 321 320 319 318 317 319 321 323 323 323 323 322 323 323 323 323 323 321 317 319
293 300 300 299 297 292 302 290 299 303 304 306 308 310 312 315 320 321 320 319 319 320 322 322 321 321 322 323 321 318 317 314 316 315 317 320 323 323 323 323 323 322 323 324 324 325 322 321 316
295 302 300 299 297 297 296 293 297 302 302 305 308 310 312 314 320 320 320 321 320 321 320 322 322 321 322 322 321 319 318 318 317 315 315 319 321 322 323 323 324 323 322 324 324 323 323 322 318
301 298 298 299 297 289 294 294 295 299 302 305 308 309 312 314 320 321 322 322 320 322 320 323 322 321 321 322 321 321 319 318 317 315 315 318 318 322 322 323 324 323 325 324 322 323 322 320 318
297 294 287 287 287 287 296 294 297 303 305 306 306 309 312 316 319 320 320 319 320 320 320 321 320 320 321 321 321 321 321 319 318 315 315 317 317 318 321 321 322 321 322 324 324 321 320 320 318
294 294 288 282 285 289 296 291 297 306 308 309 309 311 313 315 318 320 320 320 319 321 321 320 321 320 321 321 321 321 321 320 320 319 317 316 318 319 321 322 321 321 321 321 320 319 320 319 319
293 290 297 292 294 291 295 298 304 306 305 307 307 309 311 313 318 320 321 321 320 320 322 321 321 320 320 320 321 322 322 322 319 320 321 320 319 319 320 321 321 319 319 319 319 319 318 319 319
296 298 290 293 284 284 293 294 295 301 303 305 306 310 313 315 316 320 321 321 321 321 322 324 322 321 321 320 320 321 321 322 320 320 319 322 322 321 320 320 321 320 319 319 319 318 319 319 318
293 292 294 295 293 288 288 293 303 303 305 305 308 310 314 317 317 319 321 322 322 322 322 322 322 321 322 321 320 320 320 322 322 321 321 321 322 322 320 319 319 319 318 319 319 319 318 317 317
298 294 295 290 288 292 293 293 307 308 308 309 308 310 312 316 318 320 320 322 322 322 321 321 322 322 322 323 321 321 321 321 321 321 321 322 321 322 321 320 319 319 319 319 318 317 318 317 315

GFSSGP_sfc_thetae_075.txt.gz
Theta_e
322 317 308 306 295 292 289 294 298 298 299 303 307 306 304 304 304 305 335 340 345 344 347 350 349 349 350 350 350 350 350 351 351 350 349 348 348 348 347 348 349 349 349 347 345 344 344 345 346
315 314 306 302 291 286 291 298 298 301 305 306 306 306 306 310 329 332 333 341 344 344 345 348 349 349 349 349 349 350 351 351 350 349 349 349 349 348 349 347 347 348 348 345 344 344 344 345 344
316 315 301 296 291 289 290 297 298 303 306 305 303 306 308 315 324 331 338 342 342 343 343 346 347 348 349 349 349 349 349 348 349 348 349 349 349 349 348 346 346 347 347 345 344 343 343 343 342
309 305 302 291 290 295 298 302 302 303 305 306 306 304 318 326 327 333 340 342 340 339 343 343 344 347 349 349 348 348 348 347 347 347 348 349 349 348 346 344 345 346 346 345 342 341 340 339 338
304 299 291 289 292 298 302 303 304 304 306 308 308 304 313 328 333 335 336 341 337 338 341 342 342 346 348 349 348 347 346 343 346 346 347 348 348 347 344 343 344 344 344 342 341 340 338 336 336
297 297 287 286 292 300 302 304 305 306 305 305 302 303 315 328 329 332 336 335 337 339 341 341 344 345 346 346 345 342 334 331 329 333 345 347 345 343 342 342 342 342 341 339 339 338 336 335 333
294 292 288 290 294 297 302 305 304 303 300 302 309 306 317 323 329 331 333 335 336 337 340 339 340 340 339 338 337 334 336 332 330 330 340 341 341 340 341 341 340 340 339 338 337 336 335 333 331
299 295 291 294 293 294 303 305 306 304 303 313 310 302 312 322 328 329 329 329 334 336 336 339 338 334 333 330 332 332 332 331 331 329 333 338 338 340 340 339 338 338 337 336 336 334 333 331 329
301 295 291 292 295 298 304 304 304 306 302 307 309 309 320 328 328 326 325 326 327 333 335 335 337 332 330 328 330 332 332 332 330 331 327 335 336 335 335 336 336 336 335 334 334 332 330 329 328
298 292 294 299 300 299 302 298 303 304 303 305 307 322 327 325 323 321 321 323 325 326 329 332 332 333 331 330 329 327 327 328 330 329 327 335 334 332 333 334 333 333 333 333 332 330 329 324 318
298 294 298 301 303 304 300 299 302 300 298 305 306 316 320 320 319 319 320 320 321 326 328 328 330 330 332 331 328 327 325 326 328 326 327 334 332 332 331 330 330 329 330 327 325 324 319 317 317
297 300 301 301 304 303 301 301 301 302 303 308 306 310 319 318 318 319 319 317 320 323 325 327 328 329 330 332 328 329 324 325 327 331 334 333 330 329 327 326 325 325 324 321 318 316 316 316 318
299 300 302 303 303 303 303 300 300 301 304 305 308 316 314 316 318 319 320 319 321 322 325 322 323 327 329 330 331 331 328 328 326 331 332 332 330 325 324 324 322 318 321 319 316 316 314 315 316
302 302 301 302 302 301 301 301 298 302 305 305 306 314 315 316 318 318 318 317 321 323 321 321 320 322 328 327 329 332 331 331 329 329 330 331 329 324 322 321 318 318 318 315 317 318 315 314 316
302 298 300 300 301 299 302 297 298 301 304 303 303 307 315 315 319 316 317 318 321 323 321 319 319 320 325 324 328 329 330 330 327 327 328 328 328 325 323 319 320 321 319 316 317 319 318 315 317
298 298 292 298 300 301 298 293 299 302 300 300 301 303 314 316 318 317 320 320 321 322 320 320 323 321 322 325 327 327 328 328 327 326 326 325 325 326 324 320 320 322 320 319 319 319 317 314 314
293 288 291 295 301 300 298 295 301 303 303 302 300 304 311 314 315 316 320 320 321 323 321 317 319 322 322 323 325 327 326 325 325 324 324 324 324 325 325 323 322 323 321 321 321 318 317 314 313
289 290 291 292 298 299 296 296 300 303 303 303 302 303 308 313 315 317 319 320 321 323 322 319 320 322 322 322 323 323 323 323 324 323 323 324 324 324 323 325 325 325 322 321 320 318 315 315 315
295 294 292 296 300 299 298 297 299 301 300 301 301 303 306 313 315 318 319 319 320 321 322 321 320 321 322 320 320 319 318 321 321 322 322 323 323 324 324 324 324 325 323 321 319 317 316 314 315
295 293 291 296 300 299 298 299 298 299 299 301 304 303 305 312 315 316 317 317 318 320 321 321 320 321 321 321 321 321 319 320 321 322 322 322 322 322 322 323 322 324 322 321 318 318 316 316 315
291 290 293 293 298 299 297 295 295 300 302 303 304 306 307 314 313 314 316 315 315 319 320 319 319 320 322 322 321 321 320 319 318 319 319 320 321 323 322 323 323 323 322 320 318 318 316 315 316
287 295 296 296 294 288 298 287 293 297 300 302 302 304 306 314 315 315 315 314 314 316 320 320 320 320 322 322 319 319 317 315 316 318 319 320 322 322 321 321 320 321 320 319 319 320 318 318 314
291 298 297 297 293 292 293 289 292 297 297 300 302 302 304 314 314 314 314 315 315 315 319 319 320 320 321 321 320 318 317 318 318 317 317 319 320 322 321 321 319 318 319 319 320 320 319 318 316
299 295 296 295 293 285 291 290 289 293 297 301 303 304 304 314 315 315 316 316 315 317 319 320 319 319 321 321 320 318 317 316 315 315 315 316 318 320 320 320 319 318 318 320 321 320 320 318 317
295 292 285 284 284 283 294 291 292 297 301 302 301 302 305 314 314 314 314 314 315 315 318 320 319 317 320 320 319 318 318 316 315 313 312 314 316 317 318 318 319 319 319 320 321 321 320 319 317
293 291 287 281 281 285 294 287 292 301 304 304 303 304 308 313 315 315 315 314 315 316 316 319 319 319 319 320 319 320 319 317 315 314 312 313 316 318 320 319 321 319 319 322 320 320 320 319 318
292 288 294 289 290 285 292 293 298 301 302 302 303 304 304 311 313 315 315 315 316 316 316 317 317 318 320 319 320 320 320 319 318 316 314 314 316 318 319 320 319 320 319 319 319 319 318 319 319
295 297 287 287 281 281 288 291 289 296 298 300 300 301 304 308 314 315 315 314 317 317 317 317 318 317 318 320 321 320 320 320 319 319 316 315 316 318 319 319 320 319 319 319 318 317 317 317 317
292 290 291 291 289 284 283 289 300 301 302 300 302 304 307 307 313 315 316 316 316 318 318 317 318 318 318 318 319 320 320 320 320 318 318 317 317 316 318 319 320 320 318 318 317 317 316 316 316
294 293 293 287 286 289 287 288 304 303 304 303 304 305 306 310 311 315 316 316 315 316 318 318 318 318 318 318 318 318 320 321 320 318 318 318 319 319 318 318 318 319 318 317 316 315 316 315 315